| time (UTC) | temp F | wind direction | speed MPH | gust MPH | rain 1hr in | rain 24hr in | rain mn in | humidity % | barometer mb |
| 20260902044003 | 58 | 26 | 2.0 | 4.0 | 0.00 | 0.00 | 0.00 | 95 | 1018.4 |
| 20260902043803 | 58 | 53 | 2.0 | 4.0 | 0.00 | 0.00 | 0.00 | 95 | 1018.5 |
| 20260902043703 | 58 | 73 | 0.0 | 4.0 | 0.00 | 0.00 | 0.00 | 95 | 1018.5 |
| 20260902043603 | 58 | 77 | 1.0 | 4.0 | 0.00 | 0.00 | 0.00 | 95 | 1018.5 |
| 20260902043503 | 58 | 84 | 0.0 | 4.0 | 0.00 | 0.00 | 0.00 | 95 | 1018.7 |
| 20260902043418 | 58 | 78 | 0.0 | 4.0 | 0.00 | 0.00 | 0.00 | 95 | 1018.8 |
| 20260902043403 | 58 | 74 | 0.0 | 4.0 | 0.00 | 0.00 | 0.00 | 95 | 1018.8 |
| 20260902043303 | 58 | 66 | 2.0 | 4.0 | 0.00 | 0.00 | 0.00 | 95 | 1018.8 |
| 20260902043103 | 58 | 53 | 1.0 | 4.0 | 0.00 | 0.00 | 0.00 | 95 | 1018.6 |
| 20260902043003 | 58 | 45 | 2.0 | 4.0 | 0.00 | 0.00 | 0.00 | 95 | 1018.8 |
| 20260902042903 | 58 | 52 | 2.0 | 4.0 | 0.00 | 0.00 | 0.00 | 95 | 1018.7 |
| 20260902042803 | 58 | 47 | 2.0 | 4.0 | 0.00 | 0.00 | 0.00 | 95 | 1018.9 |
| 20260902042703 | 58 | 27 | 0.0 | 6.0 | 0.00 | 0.00 | 0.00 | 95 | 1018.9 |
| 20260902042603 | 58 | 24 | 1.0 | 6.0 | 0.00 | 0.00 | 0.00 | 95 | 1018.8 |
| 20260902042503 | 58 | 27 | 1.0 | 6.0 | 0.00 | 0.00 | 0.00 | 95 | 1018.7 |
| 20260902042403 | 58 | 24 | 1.0 | 6.0 | 0.00 | 0.00 | 0.00 | 95 | 1018.7 |
| 20260902042308 | 58 | 24 | 1.0 | 6.0 | 0.00 | 0.00 | 0.00 | 95 | 1018.8 |
| 20260902042203 | 58 | 43 | 0.0 | 4.0 | 0.00 | 0.00 | 0.00 | 95 | 1018.7 |
| 20260902042103 | 58 | 51 | 0.0 | 4.0 | 0.00 | 0.00 | 0.00 | 95 | 1018.8 |
| 20260902042003 | 58 | 50 | 1.0 | 4.0 | 0.00 | 0.00 | 0.00 | 95 | 1018.6 |
| 20260902041903 | 58 | 53 | 1.0 | 4.0 | 0.00 | 0.00 | 0.00 | 95 | 1018.9 |
| 20260902041803 | 58 | 58 | 2.0 | 4.0 | 0.00 | 0.00 | 0.00 | 95 | 1018.8 |
| 20260902041703 | 58 | 59 | 3.0 | 4.0 | 0.00 | 0.00 | 0.00 | 95 | 1018.8 |
| 20260902041618 | 58 | 58 | 2.0 | 4.0 | 0.00 | 0.00 | 0.00 | 95 | 1018.8 |
| 20260902041603 | 58 | 57 | 2.0 | 4.0 | 0.00 | 0.00 | 0.00 | 95 | 1018.8 |
| 20260902041517 | 58 | 50 | 1.0 | 2.0 | 0.00 | 0.00 | 0.00 | 95 | 1018.7 |
| 20260902041505 | 58 | 51 | 1.0 | 2.0 | 0.00 | 0.00 | 0.00 | 95 | 1018.7 |
| 20260902041203 | 59 | 73 | 0.0 | 4.0 | 0.00 | 0.00 | 0.00 | 95 | 1018.9 |
| 20260902041103 | 58 | 73 | 1.0 | 4.0 | 0.00 | 0.00 | 0.00 | 95 | 1019.0 |
| 20260902041018 | 59 | 77 | 1.0 | 4.0 | 0.00 | 0.00 | 0.00 | 95 | 1018.9 |
| 20260902041003 | 59 | 74 | 1.0 | 4.0 | 0.00 | 0.00 | 0.00 | 95 | 1018.9 |
| 20260902040916 | 59 | 61 | 1.0 | 4.0 | 0.00 | 0.00 | 0.00 | 95 | 1018.6 |
| 20260902040903 | 59 | 55 | 1.0 | 4.0 | 0.00 | 0.00 | 0.00 | 95 | 1018.6 |
| 20260902040718 | 58 | 37 | 0.0 | 4.0 | 0.00 | 0.00 | 0.00 | 95 | 1018.8 |
| 20260902040603 | 59 | 33 | 0.0 | 4.0 | 0.00 | 0.00 | 0.00 | 95 | 1018.9 |
| 20260902040403 | 59 | 49 | 2.0 | 4.0 | 0.00 | 0.00 | 0.00 | 95 | 1019.0 |
| 20260902040303 | 59 | 61 | 0.0 | 4.0 | 0.00 | 0.00 | 0.00 | 95 | 1018.8 |
| 20260902040218 | 59 | 65 | 0.0 | 4.0 | 0.00 | 0.00 | 0.00 | 95 | 1018.9 |
| 20260902040203 | 59 | 66 | 0.0 | 4.0 | 0.00 | 0.00 | 0.00 | 95 | 1018.9 |
| 20260902040117 | 59 | 68 | 1.0 | 4.0 | 0.00 | 0.00 | 0.00 | 95 | 1018.8 |
| 20260902040103 | 59 | 70 | 1.0 | 4.0 | 0.00 | 0.00 | 0.00 | 95 | 1018.8 |
| 20260902035803 | 59 | 73 | 0.0 | 4.0 | 0.00 | 0.00 | 0.00 | 95 | 1018.7 |
| 20260902035703 | 59 | 56 | 1.0 | 6.0 | 0.00 | 0.00 | 0.00 | 95 | 1018.8 |
| 20260902035603 | 59 | 54 | 0.0 | 6.0 | 0.00 | 0.00 | 0.00 | 95 | 1018.9 |
| 20260902035503 | 59 | 56 | 0.0 | 6.0 | 0.00 | 0.00 | 0.00 | 95 | 1018.9 |
| 20260902035403 | 59 | 59 | 0.0 | 6.0 | 0.00 | 0.00 | 0.00 | 95 | 1018.8 |
| 20260902035305 | 59 | 56 | 1.0 | 6.0 | 0.00 | 0.00 | 0.00 | 95 | 1018.9 |
| 20260902035203 | 59 | 63 | 2.0 | 6.0 | 0.00 | 0.00 | 0.00 | 95 | 1018.6 |
| 20260902035103 | 59 | 67 | 0.0 | 4.0 | 0.00 | 0.00 | 0.00 | 95 | 1019.0 |
| 20260902035003 | 59 | 66 | 0.0 | 4.0 | 0.00 | 0.00 | 0.00 | 95 | 1019.1 |
| 20260902034903 | 59 | 65 | 1.0 | 4.0 | 0.00 | 0.00 | 0.00 | 95 | 1018.9 |
| 20260902034703 | 59 | 67 | 2.0 | 4.0 | 0.00 | 0.00 | 0.00 | 95 | 1018.9 |
| 20260902034603 | 59 | 63 | 0.0 | 2.0 | 0.00 | 0.00 | 0.00 | 95 | 1019.0 |
| 20260902034503 | 59 | 54 | 0.0 | 2.0 | 0.00 | 0.00 | 0.00 | 95 | 1019.0 |
| 20260902034403 | 59 | 51 | 0.0 | 2.0 | 0.00 | 0.00 | 0.00 | 94 | 1019.1 |
| 20260902034303 | 59 | 51 | 0.0 | 2.0 | 0.00 | 0.00 | 0.00 | 94 | 1018.9 |
| 20260902034103 | 59 | 65 | 1.0 | 2.0 | 0.00 | 0.00 | 0.00 | 94 | 1019.0 |
| 20260902034003 | 59 | 78 | 1.0 | 2.0 | 0.00 | 0.00 | 0.00 | 94 | 1019.0 |
| 20260902033903 | 59 | 84 | 0.0 | 2.0 | 0.00 | 0.00 | 0.00 | 94 | 1019.0 |
| 20260902033803 | 59 | 82 | 0.0 | 2.0 | 0.00 | 0.00 | 0.00 | 94 | 1018.8 |
| 20260902033703 | 59 | 81 | 1.0 | 2.0 | 0.00 | 0.00 | 0.00 | 94 | 1019.0 |
| 20260902033603 | 59 | 78 | 1.0 | 2.0 | 0.00 | 0.00 | 0.00 | 94 | 1018.7 |
| 20260902033503 | 59 | 74 | 0.0 | 2.0 | 0.00 | 0.00 | 0.00 | 94 | 1019.0 |
| 20260902033403 | 59 | 72 | 0.0 | 2.0 | 0.00 | 0.00 | 0.00 | 94 | 1018.9 |
| 20260902033318 | 59 | 73 | 1.0 | 2.0 | 0.00 | 0.00 | 0.00 | 94 | 1018.7 |
| 20260902033303 | 59 | 74 | 1.0 | 2.0 | 0.00 | 0.00 | 0.00 | 94 | 1018.7 |
| 20260902033203 | 59 | 76 | 0.0 | 2.0 | 0.00 | 0.00 | 0.00 | 94 | 1019.0 |
| 20260902033003 | 59 | 82 | 0.0 | 2.0 | 0.00 | 0.00 | 0.00 | 94 | 1019.0 |
| 20260902032903 | 59 | 70 | 0.0 | 2.0 | 0.00 | 0.00 | 0.00 | 94 | 1019.0 |
| 20260902032803 | 59 | 71 | 0.0 | 2.0 | 0.00 | 0.00 | 0.00 | 94 | 1019.0 |
| 20260902032717 | 59 | 69 | 0.0 | 2.0 | 0.00 | 0.00 | 0.00 | 94 | 1019.2 |
| 20260902032703 | 59 | 71 | 1.0 | 2.0 | 0.00 | 0.00 | 0.00 | 94 | 1019.0 |
| 20260902032603 | 59 | 72 | 0.0 | 4.0 | 0.00 | 0.00 | 0.00 | 94 | 1019.2 |
| 20260902032403 | 59 | 80 | 1.0 | 4.0 | 0.00 | 0.00 | 0.00 | 94 | 1019.2 |
| 20260902032305 | 59 | 81 | 1.0 | 4.0 | 0.00 | 0.00 | 0.00 | 94 | 1019.3 |
| 20260902032203 | 59 | 85 | 1.0 | 4.0 | 0.00 | 0.00 | 0.00 | 94 | 1019.0 |
| 20260902032103 | 59 | 91 | 1.0 | 4.0 | 0.00 | 0.00 | 0.00 | 94 | 1019.1 |
| 20260902031918 | 59 | 95 | 1.0 | 2.0 | 0.00 | 0.00 | 0.00 | 94 | 1019.2 |
| 20260902031909 | 59 | 92 | 0.0 | 2.0 | 0.00 | 0.00 | 0.00 | 94 | 1019.1 |
| 20260902031803 | 59 | 85 | 0.0 | 2.0 | 0.00 | 0.00 | 0.00 | 94 | 1019.0 |
| 20260902031603 | 59 | 84 | 0.0 | 2.0 | 0.00 | 0.00 | 0.00 | 94 | 1019.2 |
| 20260902031503 | 59 | 78 | 0.0 | 2.0 | 0.00 | 0.00 | 0.00 | 94 | 1019.2 |
| 20260902031417 | 59 | 78 | 0.0 | 2.0 | 0.00 | 0.00 | 0.00 | 94 | 1019.1 |
| 20260902031403 | 59 | 80 | 0.0 | 2.0 | 0.00 | 0.00 | 0.00 | 94 | 1019.1 |
| 20260902031303 | 59 | 81 | 1.0 | 2.0 | 0.00 | 0.00 | 0.00 | 94 | 1019.2 |
| 20260902031218 | 59 | 79 | 1.0 | 2.0 | 0.00 | 0.00 | 0.00 | 94 | 1019.0 |
| 20260902031103 | 59 | 76 | 1.0 | 2.0 | 0.00 | 0.00 | 0.00 | 94 | 1019.0 |
| 20260902031017 | 59 | 81 | 1.0 | 2.0 | 0.00 | 0.00 | 0.00 | 94 | 1019.2 |
| 20260902030903 | 59 | 83 | 0.0 | 4.0 | 0.00 | 0.00 | 0.00 | 94 | 1019.0 |
| 20260902030703 | 59 | 90 | 1.0 | 4.0 | 0.00 | 0.00 | 0.00 | 94 | 1019.1 |
| 20260902030603 | 59 | 90 | 1.0 | 4.0 | 0.00 | 0.00 | 0.00 | 94 | 1019.3 |
| 20260902030503 | 59 | 86 | 0.0 | 4.0 | 0.00 | 0.00 | 0.00 | 94 | 1019.0 |
| 20260902030403 | 59 | 82 | 1.0 | 4.0 | 0.00 | 0.00 | 0.00 | 94 | 1019.3 |
| 20260902030303 | 59 | 82 | 0.0 | 4.0 | 0.00 | 0.00 | 0.00 | 94 | 1019.2 |
| 20260902030203 | 59 | 83 | 0.0 | 4.0 | 0.00 | 0.00 | 0.00 | 94 | 1019.3 |
| 20260902030103 | 59 | 83 | 1.0 | 4.0 | 0.00 | 0.00 | 0.00 | 94 | 1019.1 |
| 20260902030003 | 59 | 85 | 1.0 | 4.0 | 0.00 | 0.00 | 0.00 | 94 | 1019.2 |
| 20260902025903 | 59 | 86 | 1.0 | 4.0 | 0.00 | 0.00 | 0.00 | 94 | 1019.0 |
| 20260902025703 | 59 | 75 | 1.0 | 4.0 | 0.00 | 0.00 | 0.00 | 94 | 1019.1 |
| 20260902025603 | 59 | 74 | 1.0 | 4.0 | 0.00 | 0.00 | 0.00 | 94 | 1019.2 |
| 20260902025504 | 59 | 73 | 2.0 | 4.0 | 0.00 | 0.00 | 0.00 | 93 | 1019.3 |
| 20260902025403 | 59 | 72 | 2.0 | 4.0 | 0.00 | 0.00 | 0.00 | 93 | 1019.3 |
| 20260902025306 | 59 | 75 | 2.0 | 4.0 | 0.00 | 0.00 | 0.00 | 93 | 1019.2 |
| 20260902025203 | 59 | 81 | 2.0 | 4.0 | 0.00 | 0.00 | 0.00 | 93 | 1019.2 |
| 20260902025019 | 59 | 83 | 1.0 | 4.0 | 0.00 | 0.00 | 0.00 | 93 | 1019.1 |
| 20260902025003 | 59 | 82 | 1.0 | 4.0 | 0.00 | 0.00 | 0.00 | 93 | 1019.1 |
| 20260902024903 | 59 | 82 | 2.0 | 4.0 | 0.00 | 0.00 | 0.00 | 93 | 1019.1 |
| 20260902024816 | 59 | 81 | 1.0 | 4.0 | 0.00 | 0.00 | 0.00 | 93 | 1019.3 |
| 20260902024703 | 59 | 75 | 2.0 | 4.0 | 0.00 | 0.00 | 0.00 | 93 | 1019.3 |
| 20260902024617 | 59 | 78 | 1.0 | 4.0 | 0.00 | 0.00 | 0.00 | 93 | 1019.3 |
| 20260902024503 | 59 | 83 | 2.0 | 4.0 | 0.00 | 0.00 | 0.00 | 93 | 1019.0 |
| 20260902024303 | 59 | 92 | 1.0 | 4.0 | 0.00 | 0.00 | 0.00 | 93 | 1019.1 |
| 20260902024203 | 59 | 89 | 2.0 | 4.0 | 0.00 | 0.00 | 0.00 | 93 | 1019.2 |
| 20260902024103 | 59 | 82 | 1.0 | 4.0 | 0.00 | 0.00 | 0.00 | 93 | 1019.3 |
| 20260902024005 | 59 | 78 | 1.0 | 4.0 | 0.00 | 0.00 | 0.00 | 93 | 1019.1 |
| 20260902023918 | 59 | 70 | 2.0 | 4.0 | 0.00 | 0.00 | 0.00 | 93 | 1019.3 |
| 20260902023803 | 59 | 65 | 1.0 | 4.0 | 0.00 | 0.00 | 0.00 | 93 | 1019.5 |
| 20260902023618 | 59 | 76 | 0.0 | 4.0 | 0.00 | 0.00 | 0.00 | 93 | 1019.3 |
| 20260902023603 | 59 | 75 | 0.0 | 4.0 | 0.00 | 0.00 | 0.00 | 93 | 1019.3 |
| 20260902023503 | 59 | 84 | 1.0 | 4.0 | 0.00 | 0.00 | 0.00 | 93 | 1019.2 |
| 20260902023317 | 59 | 93 | 0.0 | 4.0 | 0.00 | 0.00 | 0.00 | 93 | 1019.4 |
| 20260902023303 | 59 | 95 | 0.0 | 4.0 | 0.00 | 0.00 | 0.00 | 93 | 1019.4 |
| 20260902023205 | 59 | 93 | 1.0 | 4.0 | 0.00 | 0.00 | 0.00 | 93 | 1019.3 |
| 20260902023003 | 59 | 93 | 2.0 | 4.0 | 0.00 | 0.00 | 0.00 | 93 | 1019.3 |
| 20260902022903 | 59 | 89 | 2.0 | 4.0 | 0.00 | 0.00 | 0.00 | 93 | 1019.3 |
| 20260902022803 | 59 | 89 | 2.0 | 4.0 | 0.00 | 0.00 | 0.00 | 93 | 1019.2 |
| 20260902022703 | 59 | 82 | 2.0 | 4.0 | 0.00 | 0.00 | 0.00 | 93 | 1019.2 |
| 20260902022603 | 59 | 77 | 1.0 | 4.0 | 0.00 | 0.00 | 0.00 | 93 | 1019.2 |
| 20260902022503 | 59 | 74 | 2.0 | 4.0 | 0.00 | 0.00 | 0.00 | 93 | 1019.4 |
| 20260902022405 | 59 | 77 | 2.0 | 4.0 | 0.00 | 0.00 | 0.00 | 93 | 1019.4 |
| 20260902022306 | 59 | 79 | 2.0 | 4.0 | 0.00 | 0.00 | 0.00 | 93 | 1019.2 |
| 20260902022203 | 59 | 74 | 2.0 | 4.0 | 0.00 | 0.00 | 0.00 | 93 | 1019.2 |
| 20260902022103 | 59 | 77 | 1.0 | 4.0 | 0.00 | 0.00 | 0.00 | 93 | 1019.4 |
| 20260902022003 | 59 | 85 | 2.0 | 4.0 | 0.00 | 0.00 | 0.00 | 93 | 1019.5 |
| 20260902021908 | 59 | 90 | 2.0 | 4.0 | 0.00 | 0.00 | 0.00 | 93 | 1019.3 |
| 20260902021805 | 59 | 81 | 2.0 | 4.0 | 0.00 | 0.00 | 0.00 | 93 | 1019.4 |
| 20260902021703 | 59 | 90 | 2.0 | 4.0 | 0.00 | 0.00 | 0.00 | 93 | 1019.1 |
| 20260902021603 | 59 | 96 | 2.0 | 4.0 | 0.00 | 0.00 | 0.00 | 93 | 1019.4 |
| 20260902021518 | 59 | 93 | 2.0 | 4.0 | 0.00 | 0.00 | 0.00 | 93 | 1019.1 |
| 20260902021503 | 60 | 92 | 2.0 | 4.0 | 0.00 | 0.00 | 0.00 | 93 | 1019.6 |
| 20260902021417 | 60 | 87 | 2.0 | 4.0 | 0.00 | 0.00 | 0.00 | 93 | 1019.5 |
| 20260902021403 | 60 | 89 | 2.0 | 4.0 | 0.00 | 0.00 | 0.00 | 93 | 1019.5 |
| 20260902021317 | 59 | 92 | 2.0 | 4.0 | 0.00 | 0.00 | 0.00 | 92 | 1019.3 |
| 20260902021005 | 60 | 90 | 2.0 | 7.0 | 0.00 | 0.00 | 0.00 | 92 | 1019.5 |
| 20260902020903 | 60 | 90 | 2.0 | 7.0 | 0.00 | 0.00 | 0.00 | 92 | 1019.6 |
| 20260902020803 | 60 | 90 | 2.0 | 7.0 | 0.00 | 0.00 | 0.00 | 92 | 1019.5 |
| 20260902020703 | 60 | 89 | 4.0 | 7.0 | 0.00 | 0.00 | 0.00 | 92 | 1019.4 |
| 20260902020617 | 60 | 88 | 2.0 | 6.0 | 0.00 | 0.00 | 0.00 | 92 | 1019.4 |
| 20260902020603 | 60 | 87 | 2.0 | 6.0 | 0.00 | 0.00 | 0.00 | 92 | 1019.4 |
| 20260902020503 | 60 | 85 | 2.0 | 4.0 | 0.00 | 0.00 | 0.00 | 92 | 1019.6 |
| 20260902020305 | 60 | 76 | 2.0 | 4.0 | 0.00 | 0.00 | 0.00 | 92 | 1019.5 |
| 20260902020203 | 60 | 79 | 2.0 | 4.0 | 0.00 | 0.00 | 0.00 | 92 | 1019.6 |
| 20260902020103 | 60 | 88 | 1.0 | 4.0 | 0.00 | 0.00 | 0.00 | 92 | 1019.6 |
| 20260902020003 | 60 | 82 | 1.0 | 4.0 | 0.00 | 0.00 | 0.00 | 92 | 1019.6 |
| 20260902015917 | 60 | 85 | 1.0 | 4.0 | 0.00 | 0.00 | 0.00 | 92 | 1019.6 |
| 20260902015903 | 60 | 84 | 2.0 | 6.0 | 0.00 | 0.00 | 0.00 | 92 | 1019.7 |
| 20260902015803 | 60 | 81 | 3.0 | 6.0 | 0.00 | 0.00 | 0.00 | 92 | 1019.5 |
| 20260902015617 | 60 | 70 | 2.0 | 6.0 | 0.00 | 0.00 | 0.00 | 92 | 1019.7 |
| 20260902015603 | 60 | 68 | 2.0 | 6.0 | 0.00 | 0.00 | 0.00 | 92 | 1019.7 |
| 20260902015503 | 60 | 70 | 1.0 | 6.0 | 0.00 | 0.00 | 0.00 | 92 | 1019.6 |
| 20260902015416 | 60 | 67 | 4.0 | 6.0 | 0.00 | 0.00 | 0.00 | 92 | 1019.7 |
| 20260902015306 | 60 | 79 | 2.0 | 4.0 | 0.00 | 0.00 | 0.00 | 92 | 1019.4 |
| 20260902015103 | 60 | 85 | 1.0 | 2.0 | 0.00 | 0.00 | 0.00 | 92 | 1019.6 |
| 20260902015003 | 60 | 85 | 0.0 | 2.0 | 0.00 | 0.00 | 0.00 | 92 | 1019.5 |
| 20260902014903 | 60 | 81 | 1.0 | 2.0 | 0.00 | 0.00 | 0.00 | 92 | 1019.6 |
| 20260902014803 | 60 | 76 | 1.0 | 2.0 | 0.00 | 0.00 | 0.00 | 92 | 1019.4 |
| 20260902014703 | 60 | 70 | 0.0 | 2.0 | 0.00 | 0.00 | 0.00 | 92 | 1019.6 |
| 20260902014603 | 60 | 68 | 1.0 | 2.0 | 0.00 | 0.00 | 0.00 | 92 | 1019.7 |
| 20260902014503 | 60 | 70 | 1.0 | 2.0 | 0.00 | 0.00 | 0.00 | 92 | 1019.8 |
| 20260902014403 | 60 | 69 | 2.0 | 4.0 | 0.00 | 0.00 | 0.00 | 92 | 1019.7 |
| 20260902014303 | 60 | 72 | 2.0 | 4.0 | 0.00 | 0.00 | 0.00 | 92 | 1019.6 |
| 20260902014203 | 60 | 76 | 0.0 | 4.0 | 0.00 | 0.00 | 0.00 | 92 | 1019.5 |
| 20260902014118 | 60 | 78 | 0.0 | 4.0 | 0.00 | 0.00 | 0.00 | 92 | 1019.6 |
| 20260902014103 | 60 | 76 | 0.0 | 4.0 | 0.00 | 0.00 | 0.00 | 92 | 1019.6 |
| 20260902014003 | 60 | 73 | 1.0 | 4.0 | 0.00 | 0.00 | 0.00 | 92 | 1019.5 |
| 20260902013803 | 60 | 70 | 2.0 | 4.0 | 0.00 | 0.00 | 0.00 | 91 | 1019.5 |
| 20260902013703 | 60 | 66 | 1.0 | 4.0 | 0.00 | 0.00 | 0.00 | 91 | 1019.5 |
| 20260902013603 | 60 | 66 | 1.0 | 4.0 | 0.00 | 0.00 | 0.00 | 91 | 1019.5 |
| 20260902013503 | 60 | 69 | 2.0 | 4.0 | 0.00 | 0.00 | 0.00 | 91 | 1019.7 |
| 20260902013403 | 60 | 76 | 1.0 | 4.0 | 0.00 | 0.00 | 0.00 | 91 | 1019.7 |
| 20260902013303 | 60 | 79 | 1.0 | 4.0 | 0.00 | 0.00 | 0.00 | 91 | 1019.5 |
| 20260902013203 | 60 | 84 | 2.0 | 4.0 | 0.00 | 0.00 | 0.00 | 91 | 1019.6 |
| 20260902013103 | 60 | 87 | 1.0 | 4.0 | 0.00 | 0.00 | 0.00 | 91 | 1019.5 |
| 20260902013003 | 60 | 95 | 1.0 | 4.0 | 0.00 | 0.00 | 0.00 | 91 | 1019.4 |
| 20260902012903 | 60 | 94 | 2.0 | 4.0 | 0.00 | 0.00 | 0.00 | 91 | 1019.5 |
| 20260902012803 | 60 | 89 | 1.0 | 4.0 | 0.00 | 0.00 | 0.00 | 91 | 1019.3 |
| 20260902012703 | 60 | 93 | 2.0 | 4.0 | 0.00 | 0.00 | 0.00 | 91 | 1019.5 |
| 20260902012617 | 60 | 93 | 2.0 | 4.0 | 0.00 | 0.00 | 0.00 | 91 | 1019.6 |
| 20260902012603 | 60 | 90 | 2.0 | 4.0 | 0.00 | 0.00 | 0.00 | 91 | 1019.6 |
| 20260902012503 | 60 | 85 | 0.0 | 4.0 | 0.00 | 0.00 | 0.00 | 91 | 1019.7 |
| 20260902012309 | 60 | 88 | 2.0 | 4.0 | 0.00 | 0.00 | 0.00 | 91 | 1019.6 |
| 20260902012203 | 60 | 82 | 3.0 | 4.0 | 0.00 | 0.00 | 0.00 | 91 | 1019.7 |
| 20260902012103 | 60 | 87 | 2.0 | 4.0 | 0.00 | 0.00 | 0.00 | 91 | 1019.6 |
| 20260902012003 | 60 | 90 | 2.0 | 4.0 | 0.00 | 0.00 | 0.00 | 91 | 1019.6 |
| 20260902011917 | 60 | 86 | 2.0 | 4.0 | 0.00 | 0.00 | 0.00 | 91 | 1019.5 |
| 20260902011903 | 60 | 87 | 1.0 | 4.0 | 0.00 | 0.00 | 0.00 | 91 | 1019.4 |
| 20260902011803 | 60 | 83 | 0.0 | 4.0 | 0.00 | 0.00 | 0.00 | 91 | 1019.6 |
| 20260902011716 | 60 | 80 | 1.0 | 4.0 | 0.00 | 0.00 | 0.00 | 90 | 1019.5 |
| 20260902011603 | 60 | 80 | 2.0 | 4.0 | 0.00 | 0.00 | 0.00 | 90 | 1019.3 |
| 20260902011303 | 60 | 74 | 1.0 | 4.0 | 0.00 | 0.00 | 0.00 | 90 | 1019.4 |
| 20260902011203 | 60 | 74 | 1.0 | 4.0 | 0.00 | 0.00 | 0.00 | 90 | 1019.4 |
| 20260902011003 | 60 | 80 | 2.0 | 4.0 | 0.00 | 0.00 | 0.00 | 90 | 1019.5 |
| 20260902010903 | 60 | 82 | 1.0 | 4.0 | 0.00 | 0.00 | 0.00 | 90 | 1019.6 |
| 20260902010803 | 60 | 82 | 2.0 | 4.0 | 0.00 | 0.00 | 0.00 | 90 | 1019.5 |
| 20260902010703 | 60 | 82 | 2.0 | 4.0 | 0.00 | 0.00 | 0.00 | 90 | 1019.7 |
| 20260902010603 | 61 | 75 | 2.0 | 4.0 | 0.00 | 0.00 | 0.00 | 90 | 1019.6 |
| 20260902010503 | 61 | 65 | 1.0 | 4.0 | 0.00 | 0.00 | 0.00 | 90 | 1019.6 |
| 20260902010418 | 61 | 64 | 1.0 | 4.0 | 0.00 | 0.00 | 0.00 | 90 | 1019.6 |
| 20260902010403 | 61 | 63 | 1.0 | 4.0 | 0.00 | 0.00 | 0.00 | 90 | 1019.6 |
| 20260902010303 | 61 | 64 | 1.0 | 4.0 | 0.00 | 0.00 | 0.00 | 90 | 1019.6 |
| 20260902010003 | 61 | 75 | 2.0 | 6.0 | 0.00 | 0.00 | 0.00 | 90 | 1019.6 |
| 20260902005904 | 61 | 77 | 1.0 | 6.0 | 0.00 | 0.00 | 0.00 | 90 | 1019.4 |
| 20260902005803 | 61 | 72 | 2.0 | 6.0 | 0.00 | 0.00 | 0.00 | 90 | 1019.6 |
| 20260902005703 | 61 | 67 | 3.0 | 6.0 | 0.00 | 0.00 | 0.00 | 90 | 1019.4 |
| 20260902005603 | 61 | 67 | 2.0 | 6.0 | 0.00 | 0.00 | 0.00 | 90 | 1019.5 |
| 20260902005503 | 61 | 65 | 2.0 | 6.0 | 0.00 | 0.00 | 0.00 | 90 | 1019.3 |
| 20260902005403 | 61 | 65 | 1.0 | 6.0 | 0.00 | 0.00 | 0.00 | 90 | 1019.4 |
| 20260902005306 | 61 | 67 | 2.0 | 6.0 | 0.00 | 0.00 | 0.00 | 89 | 1019.5 |
| 20260902005203 | 61 | 73 | 2.0 | 6.0 | 0.00 | 0.00 | 0.00 | 89 | 1019.4 |
| 20260902005103 | 61 | 77 | 3.0 | 6.0 | 0.00 | 0.00 | 0.00 | 89 | 1019.5 |
| 20260902005003 | 61 | 89 | 1.0 | 4.0 | 0.00 | 0.00 | 0.00 | 89 | 1019.5 |
| 20260902004903 | 61 | 89 | 2.0 | 4.0 | 0.00 | 0.00 | 0.00 | 89 | 1019.3 |
| 20260902004818 | 61 | 87 | 1.0 | 4.0 | 0.00 | 0.00 | 0.00 | 89 | 1019.4 |
| 20260902004803 | 61 | 86 | 1.0 | 4.0 | 0.00 | 0.00 | 0.00 | 89 | 1019.4 |
| 20260902004703 | 61 | 82 | 2.0 | 4.0 | 0.00 | 0.00 | 0.00 | 89 | 1019.6 |
| 20260902004503 | 61 | 75 | 2.0 | 4.0 | 0.00 | 0.00 | 0.00 | 89 | 1019.7 |
| 20260902004403 | 61 | 72 | 2.0 | 4.0 | 0.00 | 0.00 | 0.00 | 89 | 1019.6 |
| 20260902004317 | 61 | 75 | 2.0 | 4.0 | 0.00 | 0.00 | 0.00 | 89 | 1019.6 |
| 20260902004303 | 61 | 78 | 1.0 | 4.0 | 0.00 | 0.00 | 0.00 | 89 | 1019.8 |
| 20260902004203 | 61 | 76 | 2.0 | 4.0 | 0.00 | 0.00 | 0.00 | 89 | 1019.6 |
| 20260902004118 | 61 | 76 | 1.0 | 4.0 | 0.00 | 0.00 | 0.00 | 89 | 1019.6 |
| 20260902004016 | 61 | 73 | 2.0 | 4.0 | 0.00 | 0.00 | 0.00 | 89 | 1019.6 |
| 20260902004003 | 61 | 69 | 2.0 | 4.0 | 0.00 | 0.00 | 0.00 | 89 | 1019.6 |
| 20260902003917 | 61 | 67 | 2.0 | 4.0 | 0.00 | 0.00 | 0.00 | 89 | 1019.7 |
| 20260902003718 | 61 | 64 | 2.0 | 4.0 | 0.00 | 0.00 | 0.00 | 89 | 1019.9 |
| 20260902003603 | 61 | 61 | 2.0 | 4.0 | 0.00 | 0.00 | 0.00 | 89 | 1019.7 |
| 20260902003418 | 61 | 65 | 2.0 | 4.0 | 0.00 | 0.00 | 0.00 | 89 | 1019.8 |
| 20260902003403 | 61 | 66 | 2.0 | 4.0 | 0.00 | 0.00 | 0.00 | 89 | 1019.8 |
| 20260902003303 | 61 | 66 | 2.0 | 4.0 | 0.00 | 0.00 | 0.00 | 89 | 1019.5 |
| 20260902003103 | 61 | 64 | 1.0 | 4.0 | 0.00 | 0.00 | 0.00 | 89 | 1019.8 |
| 20260902003003 | 61 | 63 | 2.0 | 4.0 | 0.00 | 0.00 | 0.00 | 89 | 1019.6 |
| 20260902002903 | 61 | 63 | 2.0 | 4.0 | 0.00 | 0.00 | 0.00 | 89 | 1019.6 |
| 20260902002803 | 61 | 67 | 3.0 | 4.0 | 0.00 | 0.00 | 0.00 | 88 | 1019.7 |
| 20260902002703 | 61 | 61 | 2.0 | 4.0 | 0.00 | 0.00 | 0.00 | 88 | 1019.5 |
| 20260902002603 | 61 | 67 | 2.0 | 4.0 | 0.00 | 0.00 | 0.00 | 88 | 1019.8 |
| 20260902002503 | 61 | 69 | 2.0 | 4.0 | 0.00 | 0.00 | 0.00 | 88 | 1019.5 |
| 20260902002403 | 61 | 73 | 2.0 | 4.0 | 0.00 | 0.00 | 0.00 | 88 | 1019.6 |
| 20260902002306 | 61 | 62 | 2.0 | 4.0 | 0.00 | 0.00 | 0.00 | 88 | 1019.7 |
| 20260902002203 | 62 | 73 | 0.0 | 4.0 | 0.00 | 0.00 | 0.00 | 88 | 1019.5 |
| 20260902002103 | 61 | 63 | 1.0 | 4.0 | 0.00 | 0.00 | 0.00 | 88 | 1019.7 |
| 20260902002003 | 62 | 63 | 1.0 | 4.0 | 0.00 | 0.00 | 0.00 | 88 | 1019.5 |
| 20260902001903 | 61 | 61 | 2.0 | 4.0 | 0.00 | 0.00 | 0.00 | 88 | 1019.7 |
| 20260902001818 | 61 | 65 | 2.0 | 4.0 | 0.00 | 0.00 | 0.00 | 88 | 1019.9 |
| 20260902001803 | 61 | 64 | 2.0 | 4.0 | 0.00 | 0.00 | 0.00 | 88 | 1019.9 |
| 20260902001703 | 62 | 61 | 2.0 | 4.0 | 0.00 | 0.00 | 0.00 | 88 | 1019.4 |
| 20260902001503 | 62 | 69 | 1.0 | 4.0 | 0.00 | 0.00 | 0.00 | 88 | 1019.5 |
| 20260902001403 | 62 | 67 | 2.0 | 4.0 | 0.00 | 0.00 | 0.00 | 88 | 1019.6 |
| 20260902001303 | 62 | 67 | 2.0 | 4.0 | 0.00 | 0.00 | 0.00 | 88 | 1019.6 |
| 20260902001203 | 62 | 70 | 2.0 | 4.0 | 0.00 | 0.00 | 0.00 | 87 | 1019.6 |
| 20260902001103 | 62 | 72 | 2.0 | 4.0 | 0.00 | 0.00 | 0.00 | 87 | 1019.8 |
| 20260902001003 | 62 | 82 | 2.0 | 4.0 | 0.00 | 0.00 | 0.00 | 87 | 1019.8 |
| 20260902000903 | 62 | 86 | 1.0 | 4.0 | 0.00 | 0.00 | 0.00 | 87 | 1019.6 |
| 20260902000803 | 62 | 94 | 1.0 | 4.0 | 0.00 | 0.00 | 0.00 | 87 | 1019.6 |
| 20260902000718 | 62 | 95 | 1.0 | 4.0 | 0.00 | 0.00 | 0.00 | 87 | 1019.5 |
| 20260902000703 | 62 | 95 | 1.0 | 4.0 | 0.00 | 0.00 | 0.00 | 87 | 1019.6 |
| 20260902000603 | 62 | 97 | 2.0 | 4.0 | 0.00 | 0.00 | 0.00 | 87 | 1019.6 |
| 20260902000403 | 62 | 89 | 1.0 | 4.0 | 0.00 | 0.00 | 0.00 | 87 | 1020.0 |
| 20260902000304 | 62 | 79 | 0.0 | 4.0 | 0.00 | 0.00 | 0.00 | 87 | 1019.5 |
| 20260902000204 | 62 | 82 | 2.0 | 4.0 | 0.00 | 0.00 | 0.00 | 87 | 1019.7 |
| 20260902000103 | 62 | 83 | 2.0 | 4.0 | 0.00 | 0.00 | 0.00 | 87 | 1020.0 |
| 20260902000004 | 62 | 79 | 2.0 | 4.0 | 0.00 | 0.00 | 0.00 | 87 | 1019.9 |
| 20260901235903 | 62 | 76 | 2.0 | 4.0 | 0.00 | 0.00 | 0.00 | 86 | 1019.7 |
| 20260901235803 | 62 | 79 | 1.0 | 4.0 | 0.00 | 0.00 | 0.00 | 86 | 1019.6 |
| 20260901235703 | 62 | 80 | 1.0 | 4.0 | 0.00 | 0.00 | 0.00 | 86 | 1019.4 |
| 20260901235603 | 62 | 79 | 2.0 | 4.0 | 0.00 | 0.00 | 0.00 | 86 | 1019.5 |
| 20260901235503 | 62 | 83 | 2.0 | 4.0 | 0.00 | 0.00 | 0.00 | 86 | 1019.6 |
| 20260901235403 | 62 | 88 | 2.0 | 4.0 | 0.00 | 0.00 | 0.00 | 86 | 1019.4 |
| 20260901235307 | 63 | 89 | 2.0 | 4.0 | 0.00 | 0.00 | 0.00 | 86 | 1019.5 |
| 20260901235203 | 63 | 87 | 2.0 | 4.0 | 0.00 | 0.00 | 0.00 | 86 | 1019.5 |
| 20260901235103 | 63 | 80 | 1.0 | 4.0 | 0.00 | 0.00 | 0.00 | 86 | 1019.4 |
| 20260901235003 | 63 | 78 | 2.0 | 4.0 | 0.00 | 0.00 | 0.00 | 86 | 1019.2 |
| 20260901234903 | 63 | 79 | 2.0 | 4.0 | 0.00 | 0.00 | 0.00 | 85 | 1019.5 |
| 20260901234803 | 63 | 76 | 2.0 | 4.0 | 0.00 | 0.00 | 0.00 | 85 | 1019.7 |
| 20260901234703 | 63 | 78 | 1.0 | 4.0 | 0.00 | 0.00 | 0.00 | 85 | 1019.3 |
| 20260901234603 | 63 | 84 | 2.0 | 4.0 | 0.00 | 0.00 | 0.00 | 85 | 1019.4 |
| 20260901234503 | 63 | 82 | 1.0 | 4.0 | 0.00 | 0.00 | 0.00 | 85 | 1019.3 |
| 20260901234403 | 63 | 83 | 2.0 | 4.0 | 0.00 | 0.00 | 0.00 | 85 | 1019.3 |
| 20260901234303 | 63 | 82 | 2.0 | 4.0 | 0.00 | 0.00 | 0.00 | 85 | 1019.2 |
| 20260901234203 | 63 | 81 | 2.0 | 4.0 | 0.00 | 0.00 | 0.00 | 85 | 1019.5 |
| 20260901234103 | 63 | 78 | 2.0 | 4.0 | 0.00 | 0.00 | 0.00 | 85 | 1019.5 |
| 20260901234018 | 63 | 73 | 2.0 | 4.0 | 0.00 | 0.00 | 0.00 | 85 | 1019.4 |
| 20260901234003 | 63 | 72 | 2.0 | 4.0 | 0.00 | 0.00 | 0.00 | 85 | 1019.4 |
| 20260901233903 | 63 | 73 | 1.0 | 4.0 | 0.00 | 0.00 | 0.00 | 85 | 1019.4 |
| 20260901233703 | 63 | 79 | 2.0 | 4.0 | 0.00 | 0.00 | 0.00 | 85 | 1019.4 |
| 20260901233603 | 63 | 77 | 2.0 | 4.0 | 0.00 | 0.00 | 0.00 | 85 | 1019.3 |
| 20260901233503 | 63 | 80 | 2.0 | 4.0 | 0.00 | 0.00 | 0.00 | 84 | 1019.0 |
| 20260901233403 | 63 | 79 | 1.0 | 4.0 | 0.00 | 0.00 | 0.00 | 84 | 1019.3 |
| 20260901233303 | 63 | 77 | 2.0 | 4.0 | 0.00 | 0.00 | 0.00 | 84 | 1019.5 |
| 20260901233217 | 63 | 77 | 2.0 | 4.0 | 0.00 | 0.00 | 0.00 | 84 | 1019.3 |
| 20260901233203 | 63 | 76 | 2.0 | 4.0 | 0.00 | 0.00 | 0.00 | 84 | 1019.3 |
| 20260901233117 | 63 | 76 | 2.0 | 4.0 | 0.00 | 0.00 | 0.00 | 84 | 1019.4 |
| 20260901233103 | 63 | 78 | 1.0 | 4.0 | 0.00 | 0.00 | 0.00 | 84 | 1019.3 |
| 20260901232803 | 63 | 73 | 2.0 | 4.0 | 0.00 | 0.00 | 0.00 | 84 | 1019.3 |
| 20260901232703 | 63 | 70 | 1.0 | 4.0 | 0.00 | 0.00 | 0.00 | 84 | 1019.2 |
| 20260901232603 | 63 | 78 | 2.0 | 6.0 | 0.00 | 0.00 | 0.00 | 84 | 1019.1 |
| 20260901232503 | 63 | 90 | 2.0 | 6.0 | 0.00 | 0.00 | 0.00 | 84 | 1019.6 |
| 20260901232403 | 63 | 91 | 1.0 | 6.0 | 0.00 | 0.00 | 0.00 | 84 | 1019.3 |
| 20260901232306 | 63 | 94 | 2.0 | 6.0 | 0.00 | 0.00 | 0.00 | 84 | 1019.4 |
| 20260901232203 | 63 | 92 | 2.0 | 6.0 | 0.00 | 0.00 | 0.00 | 83 | 1019.5 |
| 20260901232103 | 63 | 85 | 2.0 | 6.0 | 0.00 | 0.00 | 0.00 | 83 | 1019.3 |
| 20260901232003 | 63 | 76 | 2.0 | 4.0 | 0.00 | 0.00 | 0.00 | 83 | 1019.4 |
| 20260901231916 | 63 | 82 | 2.0 | 4.0 | 0.00 | 0.00 | 0.00 | 83 | 1019.4 |
| 20260901231903 | 63 | 83 | 1.0 | 4.0 | 0.00 | 0.00 | 0.00 | 83 | 1019.2 |
| 20260901231803 | 63 | 78 | 1.0 | 4.0 | 0.00 | 0.00 | 0.00 | 83 | 1019.1 |
| 20260901231718 | 63 | 79 | 2.0 | 4.0 | 0.00 | 0.00 | 0.00 | 83 | 1019.2 |
| 20260901231604 | 63 | 77 | 2.0 | 4.0 | 0.00 | 0.00 | 0.00 | 83 | 1019.3 |
| 20260901231517 | 63 | 79 | 2.0 | 4.0 | 0.00 | 0.00 | 0.00 | 83 | 1019.3 |
| 20260901231417 | 63 | 75 | 1.0 | 4.0 | 0.00 | 0.00 | 0.00 | 83 | 1019.4 |
| 20260901231403 | 63 | 74 | 1.0 | 4.0 | 0.00 | 0.00 | 0.00 | 83 | 1019.4 |
| 20260901231318 | 63 | 74 | 2.0 | 4.0 | 0.00 | 0.00 | 0.00 | 83 | 1019.4 |
| 20260901231117 | 63 | 74 | 2.0 | 4.0 | 0.00 | 0.00 | 0.00 | 83 | 1019.4 |
| 20260901231018 | 63 | 66 | 2.0 | 4.0 | 0.00 | 0.00 | 0.00 | 83 | 1019.2 |
| 20260901231003 | 63 | 65 | 2.0 | 4.0 | 0.00 | 0.00 | 0.00 | 83 | 1019.2 |
| 20260901230718 | 63 | 77 | 3.0 | 4.0 | 0.00 | 0.00 | 0.00 | 83 | 1019.3 |
| 20260901230707 | 63 | 78 | 2.0 | 4.0 | 0.00 | 0.00 | 0.00 | 83 | 1019.3 |
| 20260901230603 | 63 | 89 | 2.0 | 4.0 | 0.00 | 0.00 | 0.00 | 83 | 1019.3 |
| 20260901230403 | 63 | 103 | 2.0 | 4.0 | 0.00 | 0.00 | 0.00 | 82 | 1019.1 |
| 20260901230303 | 64 | 104 | 2.0 | 4.0 | 0.00 | 0.00 | 0.00 | 82 | 1019.1 |
| 20260901230218 | 64 | 108 | 2.0 | 4.0 | 0.00 | 0.00 | 0.00 | 82 | 1019.1 |
| 20260901230203 | 64 | 106 | 2.0 | 4.0 | 0.00 | 0.00 | 0.00 | 82 | 1019.1 |
| 20260901230103 | 64 | 94 | 2.0 | 4.0 | 0.00 | 0.00 | 0.00 | 82 | 1019.0 |
| 20260901225903 | 64 | 84 | 2.0 | 4.0 | 0.00 | 0.00 | 0.00 | 82 | 1019.2 |
| 20260901225817 | 64 | 81 | 2.0 | 4.0 | 0.00 | 0.00 | 0.00 | 82 | 1019.1 |
| 20260901225803 | 64 | 79 | 2.0 | 4.0 | 0.00 | 0.00 | 0.00 | 82 | 1019.1 |
| 20260901225718 | 64 | 77 | 2.0 | 4.0 | 0.00 | 0.00 | 0.00 | 82 | 1019.2 |
| 20260901225703 | 64 | 78 | 2.0 | 4.0 | 0.00 | 0.00 | 0.00 | 82 | 1019.2 |
| 20260901225403 | 64 | 92 | 2.0 | 4.0 | 0.00 | 0.00 | 0.00 | 81 | 1019.5 |
| 20260901225318 | 64 | 101 | 2.0 | 4.0 | 0.00 | 0.00 | 0.00 | 81 | 1019.3 |
| 20260901225306 | 64 | 103 | 2.0 | 4.0 | 0.00 | 0.00 | 0.00 | 81 | 1019.3 |
| 20260901225203 | 64 | 101 | 1.0 | 2.0 | 0.00 | 0.00 | 0.00 | 81 | 1019.4 |
| 20260901225117 | 64 | 104 | 1.0 | 4.0 | 0.00 | 0.00 | 0.00 | 81 | 1019.5 |
| 20260901225003 | 64 | 105 | 1.0 | 4.0 | 0.00 | 0.00 | 0.00 | 81 | 1019.4 |
| 20260901224703 | 64 | 99 | 2.0 | 4.0 | 0.00 | 0.00 | 0.00 | 80 | 1019.4 |
| 20260901224603 | 64 | 88 | 2.0 | 4.0 | 0.00 | 0.00 | 0.00 | 80 | 1019.2 |
| 20260901224503 | 64 | 82 | 2.0 | 4.0 | 0.00 | 0.00 | 0.00 | 80 | 1019.2 |
| 20260901224403 | 64 | 77 | 1.0 | 4.0 | 0.00 | 0.00 | 0.00 | 80 | 1019.2 |
| 20260901224203 | 64 | 84 | 0.0 | 6.0 | 0.00 | 0.00 | 0.00 | 80 | 1019.2 |
| 20260901224103 | 64 | 93 | 2.0 | 6.0 | 0.00 | 0.00 | 0.00 | 80 | 1019.2 |
| 20260901224003 | 64 | 97 | 2.0 | 6.0 | 0.00 | 0.00 | 0.00 | 80 | 1019.3 |
| 20260901223903 | 64 | 104 | 3.0 | 6.0 | 0.00 | 0.00 | 0.00 | 80 | 1019.0 |
| 20260901223803 | 64 | 112 | 2.0 | 4.0 | 0.00 | 0.00 | 0.00 | 80 | 1018.9 |
| 20260901223703 | 64 | 116 | 2.0 | 4.0 | 0.00 | 0.00 | 0.00 | 80 | 1019.3 |
| 20260901223603 | 64 | 113 | 2.0 | 4.0 | 0.00 | 0.00 | 0.00 | 79 | 1019.3 |
| 20260901223503 | 64 | 108 | 2.0 | 4.0 | 0.00 | 0.00 | 0.00 | 79 | 1019.2 |
| 20260901223403 | 64 | 104 | 2.0 | 4.0 | 0.00 | 0.00 | 0.00 | 79 | 1019.1 |
| 20260901223303 | 64 | 93 | 2.0 | 4.0 | 0.00 | 0.00 | 0.00 | 79 | 1019.1 |
| 20260901223206 | 65 | 85 | 2.0 | 4.0 | 0.00 | 0.00 | 0.00 | 79 | 1019.1 |
| 20260901223103 | 65 | 75 | 2.0 | 4.0 | 0.00 | 0.00 | 0.00 | 79 | 1019.1 |
| 20260901223003 | 65 | 79 | 2.0 | 4.0 | 0.00 | 0.00 | 0.00 | 79 | 1019.1 |
| 20260901222903 | 65 | 83 | 2.0 | 4.0 | 0.00 | 0.00 | 0.00 | 79 | 1018.9 |
| 20260901222803 | 65 | 73 | 2.0 | 4.0 | 0.00 | 0.00 | 0.00 | 78 | 1019.2 |
| 20260901222703 | 65 | 62 | 2.0 | 4.0 | 0.00 | 0.00 | 0.00 | 78 | 1019.0 |
| 20260901222603 | 65 | 69 | 2.0 | 4.0 | 0.00 | 0.00 | 0.00 | 78 | 1019.0 |
| 20260901222516 | 65 | 57 | 1.0 | 4.0 | 0.00 | 0.00 | 0.00 | 78 | 1019.1 |
| 20260901222503 | 65 | 56 | 1.0 | 4.0 | 0.00 | 0.00 | 0.00 | 78 | 1019.1 |
| 20260901222403 | 65 | 55 | 2.0 | 4.0 | 0.00 | 0.00 | 0.00 | 78 | 1019.2 |
| 20260901222203 | 65 | 80 | 2.0 | 4.0 | 0.00 | 0.00 | 0.00 | 77 | 1019.0 |
| 20260901222103 | 65 | 79 | 2.0 | 4.0 | 0.00 | 0.00 | 0.00 | 77 | 1018.6 |
| 20260901222003 | 65 | 84 | 1.0 | 4.0 | 0.00 | 0.00 | 0.00 | 77 | 1019.1 |
| 20260901221918 | 65 | 86 | 2.0 | 4.0 | 0.00 | 0.00 | 0.00 | 77 | 1019.0 |
| 20260901221903 | 65 | 84 | 2.0 | 4.0 | 0.00 | 0.00 | 0.00 | 77 | 1018.8 |
| 20260901221803 | 65 | 76 | 1.0 | 4.0 | 0.00 | 0.00 | 0.00 | 77 | 1018.7 |
| 20260901221603 | 65 | 80 | 2.0 | 4.0 | 0.00 | 0.00 | 0.00 | 76 | 1018.8 |
| 20260901221516 | 65 | 93 | 2.0 | 6.0 | 0.00 | 0.00 | 0.00 | 76 | 1018.9 |
| 20260901221503 | 65 | 93 | 2.0 | 6.0 | 0.00 | 0.00 | 0.00 | 76 | 1019.0 |
| 20260901221403 | 65 | 91 | 2.0 | 6.0 | 0.00 | 0.00 | 0.00 | 76 | 1018.9 |
| 20260901221203 | 65 | 92 | 2.0 | 7.0 | 0.00 | 0.00 | 0.00 | 76 | 1018.8 |
| 20260901221103 | 65 | 84 | 3.0 | 7.0 | 0.00 | 0.00 | 0.00 | 75 | 1018.9 |
| 20260901221003 | 65 | 77 | 2.0 | 7.0 | 0.00 | 0.00 | 0.00 | 75 | 1018.8 |
| 20260901220903 | 65 | 75 | 3.0 | 7.0 | 0.00 | 0.00 | 0.00 | 75 | 1018.9 |
| 20260901220817 | 65 | 82 | 4.0 | 7.0 | 0.00 | 0.00 | 0.00 | 75 | 1019.0 |
| 20260901220803 | 65 | 86 | 4.0 | 7.0 | 0.00 | 0.00 | 0.00 | 75 | 1019.0 |
| 20260901220703 | 65 | 84 | 3.0 | 7.0 | 0.00 | 0.00 | 0.00 | 75 | 1018.9 |
| 20260901220503 | 66 | 74 | 3.0 | 7.0 | 0.00 | 0.00 | 0.00 | 74 | 1018.9 |
| 20260901220417 | 66 | 76 | 4.0 | 7.0 | 0.00 | 0.00 | 0.00 | 74 | 1018.8 |
| 20260901220403 | 66 | 77 | 4.0 | 7.0 | 0.00 | 0.00 | 0.00 | 74 | 1018.8 |
| 20260901220303 | 66 | 70 | 4.0 | 7.0 | 0.00 | 0.00 | 0.00 | 74 | 1019.0 |
| 20260901220218 | 66 | 73 | 4.0 | 7.0 | 0.00 | 0.00 | 0.00 | 74 | 1018.9 |
| 20260901220103 | 66 | 75 | 3.0 | 6.0 | 0.00 | 0.00 | 0.00 | 73 | 1019.0 |
| 20260901215903 | 66 | 65 | 2.0 | 6.0 | 0.00 | 0.00 | 0.00 | 73 | 1019.0 |
| 20260901215817 | 66 | 63 | 3.0 | 6.0 | 0.00 | 0.00 | 0.00 | 73 | 1019.1 |
| 20260901215803 | 66 | 62 | 3.0 | 6.0 | 0.00 | 0.00 | 0.00 | 73 | 1019.1 |
| 20260901215703 | 66 | 56 | 2.0 | 6.0 | 0.00 | 0.00 | 0.00 | 72 | 1019.0 |
| 20260901215503 | 67 | 55 | 2.0 | 4.0 | 0.00 | 0.00 | 0.00 | 72 | 1019.1 |
| 20260901215403 | 67 | 39 | 2.0 | 4.0 | 0.00 | 0.00 | 0.00 | 72 | 1019.1 |
| 20260901215306 | 67 | 35 | 2.0 | 4.0 | 0.00 | 0.00 | 0.00 | 72 | 1019.1 |
| 20260901215203 | 67 | 37 | 1.0 | 4.0 | 0.00 | 0.00 | 0.00 | 72 | 1018.9 |
| 20260901215103 | 67 | 51 | 1.0 | 4.0 | 0.00 | 0.00 | 0.00 | 71 | 1019.0 |
| 20260901215017 | 67 | 58 | 1.0 | 4.0 | 0.00 | 0.00 | 0.00 | 71 | 1019.0 |
| 20260901215003 | 67 | 59 | 1.0 | 4.0 | 0.00 | 0.00 | 0.00 | 71 | 1019.0 |
| 20260901214903 | 67 | 62 | 1.0 | 4.0 | 0.00 | 0.00 | 0.00 | 71 | 1019.0 |
| 20260901214717 | 67 | 59 | 2.0 | 4.0 | 0.00 | 0.00 | 0.00 | 71 | 1018.9 |
| 20260901214703 | 67 | 60 | 2.0 | 4.0 | 0.00 | 0.00 | 0.00 | 71 | 1019.2 |
| 20260901214603 | 67 | 55 | 2.0 | 4.0 | 0.00 | 0.00 | 0.00 | 70 | 1019.1 |
| 20260901214403 | 67 | 57 | 1.0 | 4.0 | 0.00 | 0.00 | 0.00 | 70 | 1019.1 |
| 20260901214303 | 67 | 58 | 2.0 | 4.0 | 0.00 | 0.00 | 0.00 | 70 | 1019.3 |
| 20260901214203 | 67 | 60 | 2.0 | 4.0 | 0.00 | 0.00 | 0.00 | 70 | 1019.1 |
| 20260901214103 | 67 | 51 | 2.0 | 4.0 | 0.00 | 0.00 | 0.00 | 70 | 1019.0 |
| 20260901214003 | 67 | 55 | 2.0 | 4.0 | 0.00 | 0.00 | 0.00 | 70 | 1019.1 |
| 20260901213903 | 68 | 66 | 2.0 | 4.0 | 0.00 | 0.00 | 0.00 | 71 | 1019.2 |
| 20260901213803 | 68 | 72 | 1.0 | 4.0 | 0.00 | 0.00 | 0.00 | 71 | 1019.0 |
| 20260901213703 | 68 | 76 | 1.0 | 4.0 | 0.00 | 0.00 | 0.00 | 71 | 1019.2 |
| 20260901213603 | 68 | 73 | 1.0 | 4.0 | 0.00 | 0.00 | 0.00 | 71 | 1019.4 |
| 20260901213518 | 68 | 59 | 2.0 | 4.0 | 0.00 | 0.00 | 0.00 | 71 | 1019.2 |
| 20260901213503 | 68 | 56 | 2.0 | 4.0 | 0.00 | 0.00 | 0.00 | 71 | 1019.1 |
| 20260901213403 | 68 | 48 | 0.0 | 4.0 | 0.00 | 0.00 | 0.00 | 72 | 1019.3 |
| 20260901213203 | 68 | 45 | 2.0 | 4.0 | 0.00 | 0.00 | 0.00 | 71 | 1019.1 |
| 20260901213117 | 68 | 41 | 3.0 | 4.0 | 0.00 | 0.00 | 0.00 | 71 | 1019.1 |
| 20260901213103 | 68 | 37 | 1.0 | 4.0 | 0.00 | 0.00 | 0.00 | 72 | 1019.1 |
| 20260901213017 | 68 | 39 | 2.0 | 4.0 | 0.00 | 0.00 | 0.00 | 72 | 1019.3 |
| 20260901213003 | 68 | 38 | 2.0 | 4.0 | 0.00 | 0.00 | 0.00 | 72 | 1019.3 |
| 20260901212816 | 69 | 32 | 1.0 | 6.0 | 0.00 | 0.00 | 0.00 | 72 | 1019.2 |
| 20260901212703 | 68 | 21 | 1.0 | 7.0 | 0.00 | 0.00 | 0.00 | 72 | 1019.2 |
| 20260901212503 | 68 | 27 | 1.0 | 7.0 | 0.00 | 0.00 | 0.00 | 72 | 1019.1 |
| 20260901212403 | 68 | 22 | 2.0 | 7.0 | 0.00 | 0.00 | 0.00 | 73 | 1019.1 |
| 20260901212306 | 68 | 25 | 2.0 | 7.0 | 0.00 | 0.00 | 0.00 | 72 | 1019.1 |
| 20260901212205 | 68 | 21 | 4.0 | 7.0 | 0.00 | 0.00 | 0.00 | 72 | 1019.1 |
| 20260901212117 | 69 | 19 | 2.0 | 6.0 | 0.00 | 0.00 | 0.00 | 72 | 1019.2 |
| 20260901212103 | 69 | 23 | 2.0 | 6.0 | 0.00 | 0.00 | 0.00 | 72 | 1019.2 |
| 20260901212003 | 69 | 29 | 2.0 | 4.0 | 0.00 | 0.00 | 0.00 | 72 | 1019.2 |
| 20260901211803 | 69 | 23 | 2.0 | 7.0 | 0.00 | 0.00 | 0.00 | 72 | 1019.0 |
| 20260901211703 | 69 | 24 | 2.0 | 7.0 | 0.00 | 0.00 | 0.00 | 72 | 1019.0 |
| 20260901211603 | 69 | 16 | 3.0 | 7.0 | 0.00 | 0.00 | 0.00 | 72 | 1019.1 |
| 20260901211518 | 69 | 15 | 2.0 | 7.0 | 0.00 | 0.00 | 0.00 | 72 | 1019.0 |
| 20260901211503 | 69 | 13 | 4.0 | 7.0 | 0.00 | 0.00 | 0.00 | 72 | 1019.1 |
| 20260901211403 | 69 | 16 | 1.0 | 4.0 | 0.00 | 0.00 | 0.00 | 71 | 1018.9 |
| 20260901211203 | 69 | 11 | 1.0 | 4.0 | 0.00 | 0.00 | 0.00 | 72 | 1019.1 |
| 20260901211103 | 69 | 20 | 2.0 | 4.0 | 0.00 | 0.00 | 0.00 | 71 | 1019.1 |
| 20260901211003 | 69 | 15 | 2.0 | 4.0 | 0.00 | 0.00 | 0.00 | 71 | 1019.0 |
| 20260901210903 | 69 | 22 | 2.0 | 4.0 | 0.00 | 0.00 | 0.00 | 71 | 1019.2 |
| 20260901210803 | 70 | 11 | 1.0 | 4.0 | 0.00 | 0.00 | 0.00 | 71 | 1019.2 |
| 20260901210703 | 69 | 26 | 2.0 | 4.0 | 0.00 | 0.00 | 0.00 | 71 | 1019.0 |
| 20260901210603 | 70 | 40 | 2.0 | 6.0 | 0.00 | 0.00 | 0.00 | 71 | 1019.1 |
| 20260901210518 | 70 | 52 | 1.0 | 7.0 | 0.00 | 0.00 | 0.00 | 71 | 1019.0 |
| 20260901210503 | 70 | 55 | 1.0 | 7.0 | 0.00 | 0.00 | 0.00 | 71 | 1019.0 |
| 20260901210403 | 70 | 59 | 1.0 | 7.0 | 0.00 | 0.00 | 0.00 | 71 | 1019.1 |
| 20260901210203 | 70 | 80 | 3.0 | 7.0 | 0.00 | 0.00 | 0.00 | 71 | 1019.1 |
| 20260901210003 | 70 | 75 | 4.0 | 7.0 | 0.00 | 0.00 | 0.00 | 70 | 1019.1 |
| 20260901205918 | 70 | 57 | 3.0 | 8.0 | 0.00 | 0.00 | 0.00 | 70 | 1019.0 |
| 20260901205903 | 70 | 49 | 2.0 | 8.0 | 0.00 | 0.00 | 0.00 | 70 | 1018.9 |
| 20260901205803 | 70 | 17 | 4.0 | 8.0 | 0.00 | 0.00 | 0.00 | 69 | 1018.9 |
| 20260901205603 | 70 | 9 | 4.0 | 8.0 | 0.00 | 0.00 | 0.00 | 69 | 1019.1 |
| 20260901205503 | 70 | 16 | 4.0 | 8.0 | 0.00 | 0.00 | 0.00 | 69 | 1019.0 |
| 20260901205403 | 70 | 37 | 4.0 | 8.0 | 0.00 | 0.00 | 0.00 | 69 | 1019.2 |
| 20260901205306 | 70 | 47 | 4.0 | 8.0 | 0.00 | 0.00 | 0.00 | 69 | 1018.9 |
| 20260901205203 | 71 | 56 | 1.0 | 6.0 | 0.00 | 0.00 | 0.00 | 69 | 1018.9 |
| 20260901205103 | 70 | 66 | 3.0 | 6.0 | 0.00 | 0.00 | 0.00 | 69 | 1019.3 |
| 20260901205003 | 70 | 73 | 2.0 | 6.0 | 0.00 | 0.00 | 0.00 | 69 | 1018.8 |
| 20260901204903 | 70 | 82 | 3.0 | 6.0 | 0.00 | 0.00 | 0.00 | 68 | 1018.9 |
| 20260901204803 | 70 | 95 | 3.0 | 6.0 | 0.00 | 0.00 | 0.00 | 68 | 1019.2 |
| 20260901204703 | 71 | 104 | 3.0 | 6.0 | 0.00 | 0.00 | 0.00 | 68 | 1019.3 |
| 20260901204617 | 71 | 95 | 3.0 | 6.0 | 0.00 | 0.00 | 0.00 | 68 | 1019.1 |
| 20260901204603 | 71 | 92 | 3.0 | 6.0 | 0.00 | 0.00 | 0.00 | 68 | 1019.1 |
| 20260901204503 | 71 | 87 | 3.0 | 4.0 | 0.00 | 0.00 | 0.00 | 68 | 1019.1 |
| 20260901204303 | 71 | 81 | 2.0 | 4.0 | 0.00 | 0.00 | 0.00 | 69 | 1019.0 |
| 20260901204203 | 71 | 66 | 2.0 | 4.0 | 0.00 | 0.00 | 0.00 | 69 | 1019.1 |
| 20260901204103 | 71 | 56 | 1.0 | 7.0 | 0.00 | 0.00 | 0.00 | 69 | 1019.1 |
| 20260901204003 | 71 | 41 | 3.0 | 7.0 | 0.00 | 0.00 | 0.00 | 69 | 1019.0 |
| 20260901203903 | 71 | 29 | 2.0 | 7.0 | 0.00 | 0.00 | 0.00 | 70 | 1019.1 |
| 20260901203803 | 70 | 18 | 2.0 | 7.0 | 0.00 | 0.00 | 0.00 | 71 | 1019.0 |
| 20260901203703 | 70 | 14 | 3.0 | 7.0 | 0.00 | 0.00 | 0.00 | 70 | 1019.0 |
| 20260901203603 | 70 | 20 | 4.0 | 7.0 | 0.00 | 0.00 | 0.00 | 70 | 1019.0 |
| 20260901203505 | 71 | 29 | 3.0 | 6.0 | 0.00 | 0.00 | 0.00 | 69 | 1019.0 |
| 20260901203403 | 71 | 27 | 2.0 | 7.0 | 0.00 | 0.00 | 0.00 | 70 | 1019.2 |
| 20260901203303 | 71 | 22 | 2.0 | 7.0 | 0.00 | 0.00 | 0.00 | 70 | 1018.9 |
| 20260901203203 | 71 | 22 | 4.0 | 7.0 | 0.00 | 0.00 | 0.00 | 70 | 1018.8 |
| 20260901203118 | 71 | 21 | 2.0 | 7.0 | 0.00 | 0.00 | 0.00 | 70 | 1019.1 |
| 20260901203103 | 71 | 20 | 1.0 | 7.0 | 0.00 | 0.00 | 0.00 | 70 | 1018.8 |
| 20260901203003 | 71 | 19 | 2.0 | 7.0 | 0.00 | 0.00 | 0.00 | 70 | 1018.9 |
| 20260901202803 | 71 | 53 | 2.0 | 6.0 | 0.00 | 0.00 | 0.00 | 69 | 1018.9 |
| 20260901202703 | 71 | 49 | 3.0 | 6.0 | 0.00 | 0.00 | 0.00 | 68 | 1018.9 |
| 20260901202603 | 71 | 39 | 2.0 | 6.0 | 0.00 | 0.00 | 0.00 | 68 | 1018.9 |
| 20260901202503 | 71 | 32 | 2.0 | 6.0 | 0.00 | 0.00 | 0.00 | 67 | 1018.9 |
| 20260901202416 | 72 | 14 | 2.0 | 6.0 | 0.00 | 0.00 | 0.00 | 67 | 1018.9 |
| 20260901202403 | 72 | 357 | 2.0 | 6.0 | 0.00 | 0.00 | 0.00 | 67 | 1018.9 |
| 20260901202306 | 72 | 323 | 2.0 | 4.0 | 0.00 | 0.00 | 0.00 | 67 | 1018.8 |
| 20260901202218 | 72 | 318 | 2.0 | 4.0 | 0.00 | 0.00 | 0.00 | 67 | 1018.7 |
| 20260901202103 | 72 | 313 | 0.0 | 4.0 | 0.00 | 0.00 | 0.00 | 67 | 1019.2 |
| 20260901202017 | 72 | 321 | 1.0 | 4.0 | 0.00 | 0.00 | 0.00 | 67 | 1019.1 |
| 20260901201917 | 71 | 340 | 2.0 | 4.0 | 0.00 | 0.00 | 0.00 | 67 | 1019.0 |
| 20260901201903 | 72 | 347 | 2.0 | 4.0 | 0.00 | 0.00 | 0.00 | 67 | 1019.0 |
| 20260901201603 | 72 | 64 | 2.0 | 6.0 | 0.00 | 0.00 | 0.00 | 65 | 1018.9 |
| 20260901201503 | 72 | 70 | 2.0 | 6.0 | 0.00 | 0.00 | 0.00 | 65 | 1019.0 |
| 20260901201403 | 73 | 75 | 2.0 | 6.0 | 0.00 | 0.00 | 0.00 | 65 | 1018.7 |
| 20260901201303 | 72 | 49 | 3.0 | 6.0 | 0.00 | 0.00 | 0.00 | 65 | 1018.9 |
| 20260901201203 | 73 | 31 | 3.0 | 6.0 | 0.00 | 0.00 | 0.00 | 65 | 1019.0 |
| 20260901201103 | 73 | 14 | 2.0 | 4.0 | 0.00 | 0.00 | 0.00 | 65 | 1019.0 |
| 20260901201003 | 73 | 356 | 1.0 | 4.0 | 0.00 | 0.00 | 0.00 | 66 | 1019.1 |
| 20260901200903 | 72 | 356 | 1.0 | 4.0 | 0.00 | 0.00 | 0.00 | 67 | 1019.2 |
| 20260901200803 | 72 | 348 | 2.0 | 4.0 | 0.00 | 0.00 | 0.00 | 66 | 1018.9 |
| 20260901200707 | 72 | 354 | 2.0 | 6.0 | 0.00 | 0.00 | 0.00 | 68 | 1018.9 |
| 20260901200603 | 71 | 351 | 1.0 | 6.0 | 0.00 | 0.00 | 0.00 | 68 | 1019.0 |
| 20260901200503 | 71 | 346 | 1.0 | 6.0 | 0.00 | 0.00 | 0.00 | 68 | 1019.0 |
| 20260901200403 | 70 | 346 | 2.0 | 6.0 | 0.00 | 0.00 | 0.00 | 69 | 1019.0 |
| 20260901200303 | 71 | 356 | 4.0 | 6.0 | 0.00 | 0.00 | 0.00 | 68 | 1018.9 |
| 20260901200203 | 71 | 351 | 2.0 | 6.0 | 0.00 | 0.00 | 0.00 | 68 | 1019.1 |
| 20260901200003 | 71 | 358 | 2.0 | 6.0 | 0.00 | 0.00 | 0.00 | 66 | 1018.8 |
| 20260901195903 | 71 | 356 | 2.0 | 6.0 | 0.00 | 0.00 | 0.00 | 66 | 1019.1 |
| 20260901195803 | 71 | 357 | 2.0 | 6.0 | 0.00 | 0.00 | 0.00 | 66 | 1019.1 |
| 20260901195703 | 72 | 9 | 2.0 | 4.0 | 0.00 | 0.00 | 0.00 | 66 | 1019.0 |
| 20260901195603 | 71 | 22 | 2.0 | 4.0 | 0.00 | 0.00 | 0.00 | 66 | 1019.0 |
| 20260901195518 | 71 | 38 | 4.0 | 4.0 | 0.00 | 0.00 | 0.00 | 65 | 1019.1 |
| 20260901195508 | 72 | 47 | 2.0 | 2.0 | 0.00 | 0.00 | 0.00 | 64 | 1019.0 |
| 20260901195403 | 73 | 66 | 2.0 | 2.0 | 0.00 | 0.00 | 0.00 | 63 | 1019.1 |
| 20260901195203 | 74 | 67 | 0.0 | 4.0 | 0.00 | 0.00 | 0.00 | 63 | 1019.0 |
| 20260901195118 | 74 | 67 | 1.0 | 4.0 | 0.00 | 0.00 | 0.00 | 62 | 1019.1 |
| 20260901195103 | 74 | 68 | 1.0 | 4.0 | 0.00 | 0.00 | 0.00 | 63 | 1019.2 |
| 20260901195003 | 73 | 70 | 1.0 | 4.0 | 0.00 | 0.00 | 0.00 | 64 | 1019.2 |
| 20260901194803 | 73 | 76 | 1.0 | 4.0 | 0.00 | 0.00 | 0.00 | 65 | 1019.3 |
| 20260901194703 | 73 | 86 | 2.0 | 4.0 | 0.00 | 0.00 | 0.00 | 64 | 1019.2 |
| 20260901194603 | 73 | 87 | 0.0 | 4.0 | 0.00 | 0.00 | 0.00 | 64 | 1019.0 |
| 20260901194503 | 73 | 81 | 0.0 | 4.0 | 0.00 | 0.00 | 0.00 | 64 | 1019.1 |
| 20260901194403 | 73 | 79 | 1.0 | 4.0 | 0.00 | 0.00 | 0.00 | 65 | 1019.0 |
| 20260901194304 | 72 | 54 | 2.0 | 4.0 | 0.00 | 0.00 | 0.00 | 64 | 1019.3 |
| 20260901194203 | 72 | 27 | 2.0 | 4.0 | 0.00 | 0.00 | 0.00 | 65 | 1019.0 |
| 20260901194104 | 72 | 21 | 2.0 | 4.0 | 0.00 | 0.00 | 0.00 | 65 | 1019.3 |
| 20260901194003 | 72 | 15 | 2.0 | 4.0 | 0.00 | 0.00 | 0.00 | 65 | 1019.2 |
| 20260901193903 | 72 | 10 | 2.0 | 4.0 | 0.00 | 0.00 | 0.00 | 64 | 1019.1 |
| 20260901193803 | 72 | 32 | 3.0 | 4.0 | 0.00 | 0.00 | 0.00 | 63 | 1019.1 |
| 20260901193718 | 74 | 58 | 2.0 | 4.0 | 0.00 | 0.00 | 0.00 | 61 | 1019.0 |
| 20260901193703 | 74 | 64 | 2.0 | 4.0 | 0.00 | 0.00 | 0.00 | 61 | 1019.0 |
| 20260901193603 | 75 | 70 | 0.0 | 4.0 | 0.00 | 0.00 | 0.00 | 61 | 1019.0 |
| 20260901193418 | 74 | 42 | 0.0 | 4.0 | 0.00 | 0.00 | 0.00 | 63 | 1019.0 |
| 20260901193303 | 74 | 29 | 1.0 | 4.0 | 0.00 | 0.00 | 0.00 | 64 | 1019.1 |
| 20260901193103 | 72 | 14 | 2.0 | 4.0 | 0.00 | 0.00 | 0.00 | 66 | 1019.2 |
| 20260901193003 | 72 | 25 | 2.0 | 4.0 | 0.00 | 0.00 | 0.00 | 66 | 1019.1 |
| 20260901192903 | 72 | 30 | 2.0 | 4.0 | 0.00 | 0.00 | 0.00 | 66 | 1019.2 |
| 20260901192803 | 72 | 35 | 2.0 | 4.0 | 0.00 | 0.00 | 0.00 | 66 | 1019.1 |
| 20260901192718 | 72 | 22 | 2.0 | 4.0 | 0.00 | 0.00 | 0.00 | 67 | 1019.1 |
| 20260901192703 | 72 | 25 | 2.0 | 4.0 | 0.00 | 0.00 | 0.00 | 67 | 1018.9 |
| 20260901192617 | 72 | 16 | 1.0 | 4.0 | 0.00 | 0.00 | 0.00 | 68 | 1018.9 |
| 20260901192603 | 72 | 13 | 1.0 | 4.0 | 0.00 | 0.00 | 0.00 | 68 | 1018.9 |
| 20260901192316 | 71 | 11 | 2.0 | 4.0 | 0.00 | 0.00 | 0.00 | 68 | 1019.3 |
| 20260901192306 | 71 | 12 | 3.0 | 4.0 | 0.00 | 0.00 | 0.00 | 68 | 1019.2 |
| 20260901192203 | 71 | 26 | 2.0 | 4.0 | 0.00 | 0.00 | 0.00 | 68 | 1019.1 |
| 20260901192003 | 71 | 41 | 2.0 | 6.0 | 0.00 | 0.00 | 0.00 | 69 | 1019.2 |
| 20260901191903 | 70 | 33 | 2.0 | 6.0 | 0.00 | 0.00 | 0.00 | 69 | 1019.2 |
| 20260901191818 | 71 | 46 | 2.0 | 6.0 | 0.00 | 0.00 | 0.00 | 69 | 1019.0 |
| 20260901191803 | 71 | 48 | 2.0 | 6.0 | 0.00 | 0.00 | 0.00 | 69 | 1019.0 |
| 20260901191703 | 71 | 56 | 2.0 | 6.0 | 0.00 | 0.00 | 0.00 | 68 | 1019.2 |
| 20260901191503 | 72 | 63 | 2.0 | 4.0 | 0.00 | 0.00 | 0.00 | 66 | 1019.1 |
| 20260901191403 | 73 | 85 | 3.0 | 4.0 | 0.00 | 0.00 | 0.00 | 65 | 1019.2 |
| 20260901191303 | 74 | 117 | 2.0 | 4.0 | 0.00 | 0.00 | 0.00 | 64 | 1019.2 |
| 20260901191203 | 74 | 215 | 1.0 | 4.0 | 0.00 | 0.00 | 0.00 | 64 | 1019.1 |
| 20260901191103 | 74 | 240 | 0.0 | 2.0 | 0.00 | 0.00 | 0.00 | 65 | 1019.0 |
| 20260901191018 | 73 | 237 | 0.0 | 2.0 | 0.00 | 0.00 | 0.00 | 66 | 1018.9 |
| 20260901191003 | 73 | 236 | 0.0 | 2.0 | 0.00 | 0.00 | 0.00 | 66 | 1018.9 |
| 20260901190903 | 73 | 323 | 1.0 | 4.0 | 0.00 | 0.00 | 0.00 | 64 | 1018.9 |
| 20260901190718 | 74 | 54 | 0.0 | 4.0 | 0.00 | 0.00 | 0.00 | 64 | 1019.0 |
| 20260901190703 | 74 | 57 | 0.0 | 4.0 | 0.00 | 0.00 | 0.00 | 65 | 1019.2 |
| 20260901190603 | 73 | 63 | 0.0 | 4.0 | 0.00 | 0.00 | 0.00 | 65 | 1019.0 |
| 20260901190418 | 72 | 45 | 2.0 | 4.0 | 0.00 | 0.00 | 0.00 | 66 | 1019.0 |
| 20260901190403 | 72 | 48 | 2.0 | 4.0 | 0.00 | 0.00 | 0.00 | 66 | 1019.0 |
| 20260901190303 | 72 | 23 | 2.0 | 4.0 | 0.00 | 0.00 | 0.00 | 67 | 1019.0 |
| 20260901190003 | 72 | 351 | 2.0 | 4.0 | 0.00 | 0.00 | 0.00 | 67 | 1019.0 |
| 20260901185817 | 71 | 338 | 2.0 | 4.0 | 0.00 | 0.00 | 0.00 | 68 | 1019.2 |
| 20260901185803 | 71 | 339 | 2.0 | 4.0 | 0.00 | 0.00 | 0.00 | 68 | 1019.2 |
| 20260901185703 | 71 | 334 | 2.0 | 4.0 | 0.00 | 0.00 | 0.00 | 68 | 1018.9 |
| 20260901185503 | 72 | 312 | 1.0 | 4.0 | 0.00 | 0.00 | 0.00 | 68 | 1019.1 |
| 20260901185403 | 71 | 317 | 3.0 | 4.0 | 0.00 | 0.00 | 0.00 | 67 | 1019.1 |
| 20260901185316 | 72 | 324 | 2.0 | 4.0 | 0.00 | 0.00 | 0.00 | 66 | 1019.0 |
| 20260901185305 | 72 | 326 | 2.0 | 4.0 | 0.00 | 0.00 | 0.00 | 66 | 1019.0 |
| 20260901185203 | 72 | 343 | 2.0 | 4.0 | 0.00 | 0.00 | 0.00 | 67 | 1019.4 |
| 20260901185118 | 72 | 357 | 2.0 | 4.0 | 0.00 | 0.00 | 0.00 | 67 | 1019.1 |
| 20260901185003 | 72 | 3 | 2.0 | 7.0 | 0.00 | 0.00 | 0.00 | 67 | 1019.1 |
| 20260901184917 | 72 | 2 | 2.0 | 7.0 | 0.00 | 0.00 | 0.00 | 67 | 1019.1 |
| 20260901184803 | 72 | 346 | 2.0 | 7.0 | 0.00 | 0.00 | 0.00 | 68 | 1019.1 |
| 20260901184603 | 71 | 338 | 2.0 | 7.0 | 0.00 | 0.00 | 0.00 | 67 | 1019.1 |
| 20260901184503 | 71 | 343 | 4.0 | 7.0 | 0.00 | 0.00 | 0.00 | 67 | 1019.1 |
| 20260901184403 | 71 | 358 | 4.0 | 6.0 | 0.00 | 0.00 | 0.00 | 66 | 1019.1 |
| 20260901184303 | 72 | 24 | 1.0 | 6.0 | 0.00 | 0.00 | 0.00 | 67 | 1019.0 |
| 20260901184203 | 71 | 15 | 2.0 | 6.0 | 0.00 | 0.00 | 0.00 | 67 | 1019.1 |
| 20260901184103 | 71 | 21 | 3.0 | 6.0 | 0.00 | 0.00 | 0.00 | 67 | 1019.0 |
| 20260901184003 | 72 | 7 | 2.0 | 6.0 | 0.00 | 0.00 | 0.00 | 67 | 1019.1 |
| 20260901183903 | 71 | 355 | 3.0 | 6.0 | 0.00 | 0.00 | 0.00 | 67 | 1019.1 |
| 20260901183803 | 71 | 348 | 3.0 | 6.0 | 0.00 | 0.00 | 0.00 | 66 | 1018.9 |
| 20260901183703 | 72 | 12 | 2.0 | 6.0 | 0.00 | 0.00 | 0.00 | 66 | 1019.0 |
| 20260901183603 | 72 | 31 | 2.0 | 6.0 | 0.00 | 0.00 | 0.00 | 66 | 1018.9 |
| 20260901183517 | 72 | 63 | 2.0 | 6.0 | 0.00 | 0.00 | 0.00 | 66 | 1019.0 |
| 20260901183503 | 72 | 76 | 2.0 | 6.0 | 0.00 | 0.00 | 0.00 | 66 | 1018.9 |
| 20260901183403 | 72 | 109 | 2.0 | 6.0 | 0.00 | 0.00 | 0.00 | 65 | 1018.9 |
| 20260901183318 | 72 | 115 | 3.0 | 4.0 | 0.00 | 0.00 | 0.00 | 65 | 1018.8 |
| 20260901183203 | 72 | 108 | 3.0 | 4.0 | 0.00 | 0.00 | 0.00 | 65 | 1019.0 |
| 20260901183003 | 72 | 28 | 1.0 | 4.0 | 0.00 | 0.00 | 0.00 | 65 | 1019.2 |
| 20260901182903 | 72 | 6 | 2.0 | 7.0 | 0.00 | 0.00 | 0.00 | 66 | 1019.0 |
| 20260901182803 | 72 | 3 | 2.0 | 7.0 | 0.00 | 0.00 | 0.00 | 66 | 1019.2 |
| 20260901182703 | 71 | 352 | 2.0 | 7.0 | 0.00 | 0.00 | 0.00 | 67 | 1019.2 |
| 20260901182603 | 71 | 350 | 2.0 | 7.0 | 0.00 | 0.00 | 0.00 | 67 | 1019.1 |
| 20260901182503 | 71 | 337 | 3.0 | 7.0 | 0.00 | 0.00 | 0.00 | 67 | 1019.1 |
| 20260901182403 | 70 | 339 | 4.0 | 7.0 | 0.00 | 0.00 | 0.00 | 67 | 1019.1 |
| 20260901182305 | 71 | 275 | 3.0 | 6.0 | 0.00 | 0.00 | 0.00 | 65 | 1019.4 |
| 20260901182217 | 73 | 207 | 2.0 | 6.0 | 0.00 | 0.00 | 0.00 | 64 | 1019.1 |
| 20260901182203 | 73 | 204 | 2.0 | 6.0 | 0.00 | 0.00 | 0.00 | 64 | 1019.1 |
| 20260901182103 | 73 | 211 | 1.0 | 6.0 | 0.00 | 0.00 | 0.00 | 64 | 1019.3 |
| 20260901181903 | 73 | 217 | 2.0 | 6.0 | 0.00 | 0.00 | 0.00 | 63 | 1019.0 |
| 20260901181803 | 73 | 226 | 3.0 | 6.0 | 0.00 | 0.00 | 0.00 | 62 | 1019.1 |
| 20260901181703 | 74 | 342 | 2.0 | 6.0 | 0.00 | 0.00 | 0.00 | 63 | 1019.0 |
| 20260901181603 | 74 | 36 | 2.0 | 4.0 | 0.00 | 0.00 | 0.00 | 63 | 1019.0 |
| 20260901181503 | 73 | 22 | 0.0 | 4.0 | 0.00 | 0.00 | 0.00 | 64 | 1019.3 |
| 20260901181403 | 72 | 19 | 1.0 | 4.0 | 0.00 | 0.00 | 0.00 | 65 | 1019.1 |
| 20260901181303 | 72 | 11 | 0.0 | 4.0 | 0.00 | 0.00 | 0.00 | 65 | 1019.3 |
| 20260901181217 | 72 | 11 | 2.0 | 4.0 | 0.00 | 0.00 | 0.00 | 65 | 1019.1 |
| 20260901181203 | 72 | 13 | 2.0 | 4.0 | 0.00 | 0.00 | 0.00 | 65 | 1019.1 |
| 20260901181117 | 72 | 15 | 2.0 | 4.0 | 0.00 | 0.00 | 0.00 | 64 | 1019.4 |
| 20260901181103 | 72 | 14 | 2.0 | 4.0 | 0.00 | 0.00 | 0.00 | 64 | 1019.3 |
| 20260901180803 | 75 | 28 | 0.0 | 4.0 | 0.00 | 0.00 | 0.00 | 62 | 1019.1 |
| 20260901180718 | 74 | 27 | 0.0 | 4.0 | 0.00 | 0.00 | 0.00 | 63 | 1019.1 |
| 20260901180703 | 73 | 27 | 2.0 | 4.0 | 0.00 | 0.00 | 0.00 | 63 | 1019.2 |
| 20260901180603 | 73 | 20 | 2.0 | 4.0 | 0.00 | 0.00 | 0.00 | 63 | 1019.4 |
| 20260901180405 | 72 | 360 | 1.0 | 4.0 | 0.00 | 0.00 | 0.00 | 64 | 1019.3 |
| 20260901180303 | 72 | 4 | 1.0 | 4.0 | 0.00 | 0.00 | 0.00 | 64 | 1019.2 |
| 20260901180203 | 72 | 337 | 1.0 | 4.0 | 0.00 | 0.00 | 0.00 | 65 | 1019.3 |
| 20260901180103 | 72 | 323 | 1.0 | 4.0 | 0.00 | 0.00 | 0.00 | 65 | 1019.1 |
| 20260901180003 | 71 | 323 | 0.0 | 4.0 | 0.00 | 0.00 | 0.00 | 65 | 1019.4 |
| 20260901175903 | 71 | 324 | 1.0 | 4.0 | 0.00 | 0.00 | 0.00 | 66 | 1019.3 |
| 20260901175817 | 70 | 328 | 2.0 | 4.0 | 0.00 | 0.00 | 0.00 | 66 | 1019.3 |
| 20260901175803 | 70 | 332 | 2.0 | 4.0 | 0.00 | 0.00 | 0.00 | 66 | 1019.3 |
| 20260901175704 | 70 | 337 | 2.0 | 4.0 | 0.00 | 0.00 | 0.00 | 66 | 1019.4 |
| 20260901175503 | 71 | 330 | 2.0 | 6.0 | 0.00 | 0.00 | 0.00 | 65 | 1019.3 |
| 20260901175403 | 71 | 327 | 2.0 | 6.0 | 0.00 | 0.00 | 0.00 | 65 | 1019.5 |
| 20260901175305 | 71 | 323 | 2.0 | 6.0 | 0.00 | 0.00 | 0.00 | 66 | 1019.4 |
| 20260901175205 | 70 | 323 | 4.0 | 6.0 | 0.00 | 0.00 | 0.00 | 66 | 1019.4 |
| 20260901175103 | 71 | 3 | 3.0 | 6.0 | 0.00 | 0.00 | 0.00 | 64 | 1019.4 |
| 20260901175003 | 71 | 68 | 3.0 | 4.0 | 0.00 | 0.00 | 0.00 | 63 | 1019.6 |
| 20260901174918 | 73 | 94 | 1.0 | 4.0 | 0.00 | 0.00 | 0.00 | 62 | 1019.7 |
| 20260901174903 | 73 | 101 | 1.0 | 4.0 | 0.00 | 0.00 | 0.00 | 62 | 1019.7 |
| 20260901174803 | 73 | 91 | 0.0 | 4.0 | 0.00 | 0.00 | 0.00 | 63 | 1019.6 |
| 20260901174603 | 74 | 40 | 1.0 | 4.0 | 0.00 | 0.00 | 0.00 | 61 | 1019.6 |
| 20260901174503 | 73 | 351 | 0.0 | 4.0 | 0.00 | 0.00 | 0.00 | 62 | 1019.7 |
| 20260901174403 | 73 | 351 | 1.0 | 4.0 | 0.00 | 0.00 | 0.00 | 62 | 1019.6 |
| 20260901174303 | 72 | 2 | 0.0 | 4.0 | 0.00 | 0.00 | 0.00 | 64 | 1019.5 |
| 20260901174203 | 72 | 15 | 0.0 | 4.0 | 0.00 | 0.00 | 0.00 | 65 | 1019.4 |
| 20260901174103 | 71 | 32 | 2.0 | 4.0 | 0.00 | 0.00 | 0.00 | 65 | 1019.8 |
| 20260901174003 | 71 | 54 | 3.0 | 4.0 | 0.00 | 0.00 | 0.00 | 64 | 1019.8 |
| 20260901173903 | 73 | 89 | 1.0 | 4.0 | 0.00 | 0.00 | 0.00 | 62 | 1019.7 |
| 20260901173803 | 73 | 89 | 1.0 | 4.0 | 0.00 | 0.00 | 0.00 | 62 | 1019.8 |
| 20260901173718 | 73 | 81 | 2.0 | 4.0 | 0.00 | 0.00 | 0.00 | 62 | 1019.8 |
| 20260901173703 | 73 | 66 | 2.0 | 4.0 | 0.00 | 0.00 | 0.00 | 62 | 1019.8 |
| 20260901173618 | 73 | 21 | 1.0 | 2.0 | 0.00 | 0.00 | 0.00 | 62 | 1019.5 |
| 20260901173303 | 72 | 345 | 0.0 | 6.0 | 0.00 | 0.00 | 0.00 | 64 | 1019.8 |
| 20260901173203 | 72 | 4 | 0.0 | 6.0 | 0.00 | 0.00 | 0.00 | 65 | 1019.9 |
| 20260901173117 | 71 | 12 | 1.0 | 6.0 | 0.00 | 0.00 | 0.00 | 65 | 1019.7 |
| 20260901173103 | 71 | 9 | 1.0 | 6.0 | 0.00 | 0.00 | 0.00 | 66 | 1019.9 |
| 20260901173003 | 71 | 352 | 3.0 | 6.0 | 0.00 | 0.00 | 0.00 | 65 | 1019.8 |
| 20260901172803 | 71 | 88 | 2.0 | 4.0 | 0.00 | 0.00 | 0.00 | 65 | 1019.8 |
| 20260901172703 | 71 | 137 | 1.0 | 4.0 | 0.00 | 0.00 | 0.00 | 66 | 1019.9 |
| 20260901172603 | 71 | 127 | 2.0 | 4.0 | 0.00 | 0.00 | 0.00 | 65 | 1020.1 |
| 20260901172503 | 71 | 68 | 1.0 | 4.0 | 0.00 | 0.00 | 0.00 | 63 | 1019.9 |
| 20260901172403 | 72 | 62 | 2.0 | 4.0 | 0.00 | 0.00 | 0.00 | 64 | 1020.0 |
| 20260901172305 | 72 | 38 | 1.0 | 4.0 | 0.00 | 0.00 | 0.00 | 65 | 1019.7 |
| 20260901172203 | 72 | 33 | 1.0 | 7.0 | 0.00 | 0.00 | 0.00 | 66 | 1020.0 |
| 20260901172103 | 71 | 30 | 1.0 | 7.0 | 0.00 | 0.00 | 0.00 | 68 | 1020.0 |
| 20260901172003 | 70 | 27 | 2.0 | 7.0 | 0.00 | 0.00 | 0.00 | 68 | 1019.9 |
| 20260901171903 | 70 | 18 | 2.0 | 7.0 | 0.00 | 0.00 | 0.00 | 67 | 1019.9 |
| 20260901171803 | 71 | 30 | 2.0 | 7.0 | 0.00 | 0.00 | 0.00 | 67 | 1019.8 |
| 20260901171703 | 71 | 20 | 4.0 | 7.0 | 0.00 | 0.00 | 0.00 | 64 | 1019.8 |
| 20260901171618 | 72 | 20 | 2.0 | 7.0 | 0.00 | 0.00 | 0.00 | 64 | 1019.6 |
| 20260901171603 | 72 | 23 | 2.0 | 7.0 | 0.00 | 0.00 | 0.00 | 64 | 1019.6 |
| 20260901171503 | 73 | 28 | 1.0 | 4.0 | 0.00 | 0.00 | 0.00 | 63 | 1019.7 |
| 20260901171303 | 72 | 16 | 2.0 | 4.0 | 0.00 | 0.00 | 0.00 | 65 | 1019.8 |
| 20260901171203 | 72 | 31 | 0.0 | 4.0 | 0.00 | 0.00 | 0.00 | 67 | 1020.0 |
| 20260901171103 | 70 | 36 | 2.0 | 4.0 | 0.00 | 0.00 | 0.00 | 68 | 1019.9 |
| 20260901171003 | 70 | 34 | 0.0 | 4.0 | 0.00 | 0.00 | 0.00 | 69 | 1020.0 |
| 20260901170903 | 69 | 38 | 1.0 | 4.0 | 0.00 | 0.00 | 0.00 | 69 | 1020.0 |
| 20260901170803 | 69 | 40 | 2.0 | 4.0 | 0.00 | 0.00 | 0.00 | 69 | 1020.0 |
| 20260901170703 | 70 | 51 | 2.0 | 4.0 | 0.00 | 0.00 | 0.00 | 69 | 1019.9 |
| 20260901170603 | 70 | 61 | 2.0 | 4.0 | 0.00 | 0.00 | 0.00 | 68 | 1020.2 |
| 20260901170503 | 70 | 92 | 2.0 | 4.0 | 0.00 | 0.00 | 0.00 | 68 | 1020.0 |
| 20260901170417 | 70 | 90 | 2.0 | 4.0 | 0.00 | 0.00 | 0.00 | 68 | 1020.2 |
| 20260901170403 | 70 | 89 | 2.0 | 4.0 | 0.00 | 0.00 | 0.00 | 68 | 1020.2 |
| 20260901170303 | 70 | 120 | 2.0 | 4.0 | 0.00 | 0.00 | 0.00 | 68 | 1019.9 |
| 20260901170003 | 70 | 63 | 2.0 | 4.0 | 0.00 | 0.00 | 0.00 | 67 | 1020.0 |
| 20260901165918 | 71 | 88 | 2.0 | 4.0 | 0.00 | 0.00 | 0.00 | 65 | 1020.3 |
| 20260901165903 | 72 | 90 | 2.0 | 4.0 | 0.00 | 0.00 | 0.00 | 66 | 1020.0 |
| 20260901165803 | 72 | 79 | 2.0 | 4.0 | 0.00 | 0.00 | 0.00 | 66 | 1020.2 |
| 20260901165603 | 70 | 94 | 2.0 | 4.0 | 0.00 | 0.00 | 0.00 | 67 | 1020.3 |
| 20260901165503 | 70 | 99 | 2.0 | 6.0 | 0.00 | 0.00 | 0.00 | 67 | 1020.4 |
| 20260901165417 | 70 | 100 | 2.0 | 7.0 | 0.00 | 0.00 | 0.00 | 67 | 1020.3 |
| 20260901165403 | 70 | 99 | 2.0 | 7.0 | 0.00 | 0.00 | 0.00 | 67 | 1020.3 |
| 20260901165318 | 71 | 99 | 3.0 | 7.0 | 0.00 | 0.00 | 0.00 | 65 | 1020.6 |
| 20260901165306 | 71 | 95 | 3.0 | 7.0 | 0.00 | 0.00 | 0.00 | 65 | 1020.6 |
| 20260901165218 | 71 | 94 | 2.0 | 7.0 | 0.00 | 0.00 | 0.00 | 66 | 1020.3 |
| 20260901164903 | 70 | 82 | 3.0 | 7.0 | 0.00 | 0.00 | 0.00 | 67 | 1020.3 |
| 20260901164805 | 70 | 58 | 2.0 | 6.0 | 0.00 | 0.00 | 0.00 | 66 | 1020.3 |
| 20260901164703 | 71 | 342 | 2.0 | 4.0 | 0.00 | 0.00 | 0.00 | 67 | 1020.1 |
| 20260901164603 | 71 | 61 | 1.0 | 4.0 | 0.00 | 0.00 | 0.00 | 68 | 1020.4 |
| 20260901164503 | 71 | 76 | 0.0 | 4.0 | 0.00 | 0.00 | 0.00 | 70 | 1020.3 |
| 20260901164403 | 70 | 100 | 1.0 | 6.0 | 0.00 | 0.00 | 0.00 | 70 | 1020.4 |
| 20260901164303 | 68 | 106 | 2.0 | 6.0 | 0.00 | 0.00 | 0.00 | 70 | 1020.4 |
| 20260901164218 | 69 | 99 | 3.0 | 6.0 | 0.00 | 0.00 | 0.00 | 69 | 1020.7 |
| 20260901164203 | 69 | 100 | 3.0 | 6.0 | 0.00 | 0.00 | 0.00 | 69 | 1020.7 |
| 20260901164119 | 70 | 107 | 2.0 | 6.0 | 0.00 | 0.00 | 0.00 | 69 | 1020.5 |
| 20260901164103 | 70 | 110 | 2.0 | 6.0 | 0.00 | 0.00 | 0.00 | 69 | 1020.5 |
| 20260901164018 | 70 | 106 | 2.0 | 6.0 | 0.00 | 0.00 | 0.00 | 69 | 1020.4 |
| 20260901163717 | 71 | 118 | 1.0 | 6.0 | 0.00 | 0.00 | 0.00 | 68 | 1020.5 |
| 20260901163703 | 71 | 125 | 1.0 | 6.0 | 0.00 | 0.00 | 0.00 | 68 | 1020.5 |
| 20260901163618 | 71 | 133 | 1.0 | 6.0 | 0.00 | 0.00 | 0.00 | 69 | 1020.6 |
| 20260901163603 | 71 | 138 | 1.0 | 6.0 | 0.00 | 0.00 | 0.00 | 69 | 1020.6 |
| 20260901163303 | 69 | 89 | 3.0 | 6.0 | 0.00 | 0.00 | 0.00 | 69 | 1020.6 |
| 20260901163203 | 70 | 88 | 2.0 | 4.0 | 0.00 | 0.00 | 0.00 | 70 | 1020.7 |
| 20260901163117 | 69 | 81 | 2.0 | 4.0 | 0.00 | 0.00 | 0.00 | 71 | 1020.4 |
| 20260901163105 | 69 | 74 | 2.0 | 7.0 | 0.00 | 0.00 | 0.00 | 70 | 1020.6 |
| 20260901163017 | 69 | 72 | 2.0 | 7.0 | 0.00 | 0.00 | 0.00 | 70 | 1020.5 |
| 20260901163003 | 69 | 74 | 2.0 | 7.0 | 0.00 | 0.00 | 0.00 | 70 | 1020.5 |
| 20260901162704 | 68 | 75 | 2.0 | 7.0 | 0.00 | 0.00 | 0.00 | 71 | 1020.8 |
| 20260901162618 | 68 | 75 | 4.0 | 7.0 | 0.00 | 0.00 | 0.00 | 70 | 1020.6 |
| 20260901162603 | 68 | 81 | 4.0 | 7.0 | 0.00 | 0.00 | 0.00 | 70 | 1020.6 |
| 20260901162503 | 69 | 96 | 2.0 | 4.0 | 0.00 | 0.00 | 0.00 | 70 | 1020.8 |
| 20260901162306 | 69 | 103 | 2.0 | 8.0 | 0.00 | 0.00 | 0.00 | 70 | 1020.7 |
| 20260901162203 | 69 | 92 | 2.0 | 8.0 | 0.00 | 0.00 | 0.00 | 70 | 1020.8 |
| 20260901162105 | 69 | 87 | 2.0 | 8.0 | 0.00 | 0.00 | 0.00 | 70 | 1020.7 |
| 20260901162003 | 69 | 81 | 1.0 | 8.0 | 0.00 | 0.00 | 0.00 | 70 | 1020.7 |
| 20260901161905 | 69 | 63 | 5.0 | 8.0 | 0.00 | 0.00 | 0.00 | 70 | 1020.8 |
| 20260901161803 | 69 | 49 | 2.0 | 4.0 | 0.00 | 0.00 | 0.00 | 71 | 1020.7 |
| 20260901161703 | 69 | 76 | 2.0 | 4.0 | 0.00 | 0.00 | 0.00 | 70 | 1020.5 |
| 20260901161603 | 69 | 81 | 2.0 | 4.0 | 0.00 | 0.00 | 0.00 | 70 | 1020.6 |
| 20260901161503 | 69 | 81 | 2.0 | 4.0 | 0.00 | 0.00 | 0.00 | 70 | 1020.8 |
| 20260901161403 | 70 | 90 | 2.0 | 4.0 | 0.00 | 0.00 | 0.00 | 68 | 1020.8 |
| 20260901161303 | 71 | 81 | 2.0 | 4.0 | 0.00 | 0.00 | 0.00 | 68 | 1020.8 |
| 20260901161203 | 70 | 86 | 2.0 | 4.0 | 0.00 | 0.00 | 0.00 | 69 | 1020.6 |
| 20260901161103 | 70 | 96 | 1.0 | 6.0 | 0.00 | 0.00 | 0.00 | 70 | 1020.8 |
| 20260901161003 | 69 | 98 | 2.0 | 6.0 | 0.00 | 0.00 | 0.00 | 69 | 1020.6 |
| 20260901160903 | 69 | 95 | 1.0 | 6.0 | 0.00 | 0.00 | 0.00 | 70 | 1020.9 |
| 20260901160818 | 69 | 101 | 2.0 | 6.0 | 0.00 | 0.00 | 0.00 | 70 | 1020.8 |
| 20260901160803 | 69 | 105 | 2.0 | 6.0 | 0.00 | 0.00 | 0.00 | 70 | 1020.8 |
| 20260901160703 | 70 | 101 | 2.0 | 6.0 | 0.00 | 0.00 | 0.00 | 70 | 1020.7 |
| 20260901160618 | 69 | 100 | 2.0 | 6.0 | 0.00 | 0.00 | 0.00 | 70 | 1020.8 |
| 20260901160503 | 69 | 109 | 2.0 | 7.0 | 0.00 | 0.00 | 0.00 | 70 | 1020.7 |
| 20260901160303 | 69 | 101 | 2.0 | 8.0 | 0.00 | 0.00 | 0.00 | 71 | 1020.9 |
| 20260901160203 | 68 | 98 | 2.0 | 8.0 | 0.00 | 0.00 | 0.00 | 71 | 1020.6 |
| 20260901160013 | 68 | 89 | 4.0 | 8.0 | 0.00 | 0.00 | 0.00 | 71 | 1020.9 |
| 20260901155903 | 68 | 78 | 3.0 | 8.0 | 0.00 | 0.00 | 0.00 | 71 | 1020.7 |
| 20260901155803 | 68 | 84 | 4.0 | 8.0 | 0.00 | 0.00 | 0.00 | 71 | 1020.6 |
| 20260901155703 | 69 | 77 | 2.0 | 6.0 | 0.00 | 0.00 | 0.00 | 71 | 1020.6 |
| 20260901155618 | 68 | 81 | 2.0 | 6.0 | 0.00 | 0.00 | 0.00 | 71 | 1020.8 |
| 20260901155603 | 68 | 82 | 2.0 | 6.0 | 0.00 | 0.00 | 0.00 | 71 | 1020.8 |
| 20260901155503 | 68 | 73 | 2.0 | 7.0 | 0.00 | 0.00 | 0.00 | 71 | 1020.7 |
| 20260901155419 | 68 | 82 | 2.0 | 7.0 | 0.00 | 0.00 | 0.00 | 70 | 1020.8 |
| 20260901155306 | 69 | 162 | 3.0 | 7.0 | 0.00 | 0.00 | 0.00 | 70 | 1020.6 |
| 20260901155218 | 69 | 182 | 2.0 | 7.0 | 0.00 | 0.00 | 0.00 | 70 | 1020.8 |
| 20260901155103 | 68 | 174 | 3.0 | 7.0 | 0.00 | 0.00 | 0.00 | 71 | 1020.7 |
| 20260901155017 | 68 | 144 | 4.0 | 7.0 | 0.00 | 0.00 | 0.00 | 69 | 1020.9 |
| 20260901154903 | 69 | 160 | 3.0 | 6.0 | 0.00 | 0.00 | 0.00 | 69 | 1020.8 |
| 20260901154717 | 69 | 94 | 2.0 | 7.0 | 0.00 | 0.00 | 0.00 | 71 | 1020.9 |
| 20260901154703 | 68 | 89 | 2.0 | 7.0 | 0.00 | 0.00 | 0.00 | 71 | 1020.8 |
| 20260901154603 | 68 | 83 | 1.0 | 7.0 | 0.00 | 0.00 | 0.00 | 72 | 1021.0 |
| 20260901154518 | 68 | 89 | 2.0 | 7.0 | 0.00 | 0.00 | 0.00 | 72 | 1020.9 |
| 20260901154403 | 68 | 98 | 2.0 | 7.0 | 0.00 | 0.00 | 0.00 | 72 | 1021.0 |
| 20260901154317 | 68 | 99 | 4.0 | 7.0 | 0.00 | 0.00 | 0.00 | 71 | 1020.9 |
| 20260901154218 | 69 | 99 | 2.0 | 7.0 | 0.00 | 0.00 | 0.00 | 71 | 1021.1 |
| 20260901154203 | 69 | 98 | 2.0 | 7.0 | 0.00 | 0.00 | 0.00 | 71 | 1021.1 |
| 20260901153903 | 67 | 78 | 2.0 | 9.0 | 0.00 | 0.00 | 0.00 | 72 | 1021.1 |
| 20260901153803 | 68 | 78 | 2.0 | 9.0 | 0.00 | 0.00 | 0.00 | 73 | 1021.0 |
| 20260901153703 | 67 | 80 | 2.0 | 9.0 | 0.00 | 0.00 | 0.00 | 73 | 1021.0 |
| 20260901153606 | 67 | 81 | 2.0 | 9.0 | 0.00 | 0.00 | 0.00 | 73 | 1021.0 |
| 20260901153505 | 67 | 79 | 3.0 | 9.0 | 0.00 | 0.00 | 0.00 | 74 | 1021.1 |
| 20260901153403 | 66 | 74 | 6.0 | 9.0 | 0.00 | 0.00 | 0.00 | 73 | 1021.1 |
| 20260901153303 | 67 | 70 | 3.0 | 7.0 | 0.00 | 0.00 | 0.00 | 72 | 1021.1 |
| 20260901153203 | 67 | 69 | 2.0 | 7.0 | 0.00 | 0.00 | 0.00 | 72 | 1021.4 |
| 20260901153103 | 67 | 78 | 2.0 | 7.0 | 0.00 | 0.00 | 0.00 | 73 | 1021.3 |
| 20260901153003 | 67 | 78 | 3.0 | 7.0 | 0.00 | 0.00 | 0.00 | 73 | 1021.4 |
| 20260901152903 | 67 | 75 | 3.0 | 8.0 | 0.00 | 0.00 | 0.00 | 73 | 1021.3 |
| 20260901152803 | 67 | 67 | 3.0 | 8.0 | 0.00 | 0.00 | 0.00 | 73 | 1021.3 |
| 20260901152717 | 66 | 59 | 1.0 | 8.0 | 0.00 | 0.00 | 0.00 | 74 | 1021.6 |
| 20260901152703 | 66 | 60 | 4.0 | 8.0 | 0.00 | 0.00 | 0.00 | 74 | 1021.5 |
| 20260901152603 | 66 | 57 | 2.0 | 8.0 | 0.00 | 0.00 | 0.00 | 73 | 1021.5 |
| 20260901152403 | 66 | 77 | 4.0 | 8.0 | 0.00 | 0.00 | 0.00 | 73 | 1021.4 |
| 20260901152305 | 66 | 89 | 3.0 | 6.0 | 0.00 | 0.00 | 0.00 | 72 | 1021.5 |
| 20260901152203 | 67 | 96 | 2.0 | 6.0 | 0.00 | 0.00 | 0.00 | 72 | 1021.6 |
| 20260901152103 | 67 | 81 | 2.0 | 6.0 | 0.00 | 0.00 | 0.00 | 72 | 1021.7 |
| 20260901152003 | 67 | 57 | 3.0 | 6.0 | 0.00 | 0.00 | 0.00 | 71 | 1021.7 |
| 20260901151903 | 67 | 46 | 2.0 | 6.0 | 0.00 | 0.00 | 0.00 | 72 | 1021.8 |
| 20260901151803 | 66 | 40 | 1.0 | 6.0 | 0.00 | 0.00 | 0.00 | 73 | 1021.6 |
| 20260901151703 | 66 | 34 | 2.0 | 6.0 | 0.00 | 0.00 | 0.00 | 73 | 1021.6 |
| 20260901151603 | 66 | 32 | 2.0 | 6.0 | 0.00 | 0.00 | 0.00 | 73 | 1021.7 |
| 20260901151503 | 66 | 39 | 3.0 | 6.0 | 0.00 | 0.00 | 0.00 | 72 | 1021.6 |
| 20260901151403 | 66 | 28 | 2.0 | 4.0 | 0.00 | 0.00 | 0.00 | 73 | 1021.8 |
| 20260901151303 | 66 | 34 | 2.0 | 4.0 | 0.00 | 0.00 | 0.00 | 73 | 1021.8 |
| 20260901151203 | 66 | 23 | 2.0 | 4.0 | 0.00 | 0.00 | 0.00 | 72 | 1021.6 |
| 20260901151103 | 66 | 56 | 1.0 | 8.0 | 0.00 | 0.00 | 0.00 | 74 | 1022.0 |
| 20260901151003 | 66 | 68 | 1.0 | 8.0 | 0.00 | 0.00 | 0.00 | 75 | 1021.6 |
| 20260901150903 | 65 | 71 | 3.0 | 8.0 | 0.00 | 0.00 | 0.00 | 74 | 1021.8 |
| 20260901150803 | 65 | 64 | 3.0 | 8.0 | 0.00 | 0.00 | 0.00 | 74 | 1021.7 |
| 20260901150703 | 65 | 71 | 2.0 | 8.0 | 0.00 | 0.00 | 0.00 | 75 | 1021.5 |
| 20260901150603 | 65 | 68 | 4.0 | 8.0 | 0.00 | 0.00 | 0.00 | 74 | 1021.8 |
| 20260901150503 | 65 | 57 | 4.0 | 8.0 | 0.00 | 0.00 | 0.00 | 74 | 1021.6 |
| 20260901150403 | 66 | 65 | 3.0 | 8.0 | 0.00 | 0.00 | 0.00 | 73 | 1021.7 |
| 20260901150303 | 65 | 84 | 5.0 | 8.0 | 0.00 | 0.00 | 0.00 | 73 | 1021.9 |
| 20260901150218 | 66 | 81 | 3.0 | 8.0 | 0.00 | 0.00 | 0.00 | 73 | 1021.8 |
| 20260901150203 | 66 | 79 | 3.0 | 8.0 | 0.00 | 0.00 | 0.00 | 73 | 1021.8 |
| 20260901150118 | 66 | 72 | 4.0 | 8.0 | 0.00 | 0.00 | 0.00 | 73 | 1021.7 |
| 20260901150103 | 66 | 70 | 4.0 | 8.0 | 0.00 | 0.00 | 0.00 | 73 | 1021.7 |
| 20260901145918 | 66 | 81 | 3.0 | 8.0 | 0.00 | 0.00 | 0.00 | 74 | 1021.8 |
| 20260901145803 | 65 | 57 | 3.0 | 8.0 | 0.00 | 0.00 | 0.00 | 74 | 1021.9 |
| 20260901145604 | 66 | 69 | 2.0 | 8.0 | 0.00 | 0.00 | 0.00 | 74 | 1021.7 |
| 20260901145503 | 65 | 60 | 5.0 | 8.0 | 0.00 | 0.00 | 0.00 | 74 | 1021.7 |
| 20260901145403 | 66 | 59 | 4.0 | 8.0 | 0.00 | 0.00 | 0.00 | 75 | 1021.8 |
| 20260901145306 | 65 | 64 | 4.0 | 7.0 | 0.00 | 0.00 | 0.00 | 74 | 1021.8 |
| 20260901145203 | 65 | 69 | 4.0 | 7.0 | 0.00 | 0.00 | 0.00 | 74 | 1021.8 |
| 20260901145118 | 65 | 69 | 3.0 | 7.0 | 0.00 | 0.00 | 0.00 | 73 | 1021.7 |
| 20260901145103 | 66 | 66 | 3.0 | 7.0 | 0.00 | 0.00 | 0.00 | 73 | 1021.7 |
| 20260901145003 | 66 | 62 | 4.0 | 7.0 | 0.00 | 0.00 | 0.00 | 73 | 1021.9 |
| 20260901144803 | 66 | 68 | 3.0 | 7.0 | 0.00 | 0.00 | 0.00 | 74 | 1021.8 |
| 20260901144717 | 66 | 60 | 4.0 | 7.0 | 0.00 | 0.00 | 0.00 | 73 | 1021.8 |
| 20260901144703 | 66 | 58 | 2.0 | 7.0 | 0.00 | 0.00 | 0.00 | 74 | 1021.8 |
| 20260901144603 | 66 | 52 | 2.0 | 7.0 | 0.00 | 0.00 | 0.00 | 74 | 1021.9 |
| 20260901144403 | 65 | 62 | 2.0 | 7.0 | 0.00 | 0.00 | 0.00 | 76 | 1021.7 |
| 20260901144303 | 65 | 62 | 3.0 | 8.0 | 0.00 | 0.00 | 0.00 | 75 | 1021.7 |
| 20260901144203 | 65 | 95 | 3.0 | 8.0 | 0.00 | 0.00 | 0.00 | 75 | 1021.7 |
| 20260901144103 | 65 | 94 | 2.0 | 8.0 | 0.00 | 0.00 | 0.00 | 76 | 1021.9 |
| 20260901144017 | 65 | 98 | 2.0 | 8.0 | 0.00 | 0.00 | 0.00 | 76 | 1021.9 |
| 20260901144003 | 65 | 99 | 2.0 | 8.0 | 0.00 | 0.00 | 0.00 | 76 | 1021.9 |
| 20260901143903 | 65 | 88 | 4.0 | 8.0 | 0.00 | 0.00 | 0.00 | 76 | 1021.8 |
| 20260901143703 | 64 | 57 | 5.0 | 8.0 | 0.00 | 0.00 | 0.00 | 76 | 1021.9 |
| 20260901143603 | 65 | 60 | 4.0 | 8.0 | 0.00 | 0.00 | 0.00 | 75 | 1021.8 |
| 20260901143503 | 65 | 50 | 4.0 | 9.0 | 0.00 | 0.00 | 0.00 | 75 | 1021.9 |
| 20260901143403 | 65 | 53 | 4.0 | 9.0 | 0.00 | 0.00 | 0.00 | 75 | 1021.9 |
| 20260901143303 | 65 | 54 | 4.0 | 9.0 | 0.00 | 0.00 | 0.00 | 75 | 1022.1 |
| 20260901143203 | 65 | 56 | 3.0 | 9.0 | 0.00 | 0.00 | 0.00 | 74 | 1022.1 |
| 20260901143103 | 66 | 49 | 5.0 | 9.0 | 0.00 | 0.00 | 0.00 | 73 | 1022.3 |
| 20260901143003 | 66 | 61 | 2.0 | 6.0 | 0.00 | 0.00 | 0.00 | 73 | 1022.1 |
| 20260901142903 | 66 | 60 | 2.0 | 6.0 | 0.00 | 0.00 | 0.00 | 74 | 1022.1 |
| 20260901142803 | 66 | 59 | 2.0 | 6.0 | 0.00 | 0.00 | 0.00 | 74 | 1022.0 |
| 20260901142703 | 66 | 54 | 3.0 | 6.0 | 0.00 | 0.00 | 0.00 | 73 | 1022.0 |
| 20260901142617 | 66 | 54 | 1.0 | 8.0 | 0.00 | 0.00 | 0.00 | 74 | 1022.2 |
| 20260901142603 | 66 | 56 | 1.0 | 8.0 | 0.00 | 0.00 | 0.00 | 74 | 1022.2 |
| 20260901142503 | 65 | 53 | 3.0 | 8.0 | 0.00 | 0.00 | 0.00 | 74 | 1022.2 |
| 20260901142305 | 66 | 70 | 2.0 | 8.0 | 0.00 | 0.00 | 0.00 | 74 | 1022.2 |
| 20260901142203 | 66 | 77 | 1.0 | 8.0 | 0.00 | 0.00 | 0.00 | 74 | 1021.9 |
| 20260901142103 | 65 | 78 | 4.0 | 8.0 | 0.00 | 0.00 | 0.00 | 74 | 1022.1 |
| 20260901142017 | 66 | 87 | 4.0 | 6.0 | 0.00 | 0.00 | 0.00 | 73 | 1022.2 |
| 20260901142003 | 66 | 91 | 4.0 | 6.0 | 0.00 | 0.00 | 0.00 | 73 | 1022.2 |
| 20260901141903 | 66 | 104 | 2.0 | 7.0 | 0.00 | 0.00 | 0.00 | 72 | 1022.1 |
| 20260901141703 | 67 | 71 | 2.0 | 7.0 | 0.00 | 0.00 | 0.00 | 71 | 1022.1 |
| 20260901141603 | 68 | 74 | 1.0 | 7.0 | 0.00 | 0.00 | 0.00 | 72 | 1022.2 |
| 20260901141517 | 67 | 64 | 2.0 | 7.0 | 0.00 | 0.00 | 0.00 | 72 | 1022.0 |
| 20260901141503 | 67 | 55 | 4.0 | 7.0 | 0.00 | 0.00 | 0.00 | 71 | 1022.1 |
| 20260901141403 | 67 | 340 | 3.0 | 7.0 | 0.00 | 0.00 | 0.00 | 71 | 1022.2 |
| 20260901141217 | 67 | 164 | 1.0 | 4.0 | 0.00 | 0.00 | 0.00 | 72 | 1022.0 |
| 20260901141203 | 67 | 154 | 1.0 | 4.0 | 0.00 | 0.00 | 0.00 | 72 | 1022.0 |
| 20260901141118 | 67 | 102 | 1.0 | 4.0 | 0.00 | 0.00 | 0.00 | 72 | 1021.8 |
| 20260901141103 | 67 | 94 | 0.0 | 4.0 | 0.00 | 0.00 | 0.00 | 72 | 1022.2 |
| 20260901141017 | 67 | 80 | 2.0 | 4.0 | 0.00 | 0.00 | 0.00 | 72 | 1022.1 |
| 20260901140718 | 67 | 56 | 0.0 | 4.0 | 0.00 | 0.00 | 0.00 | 72 | 1021.8 |
| 20260901140703 | 67 | 53 | 2.0 | 4.0 | 0.00 | 0.00 | 0.00 | 72 | 1021.9 |
| 20260901140617 | 67 | 48 | 2.0 | 4.0 | 0.00 | 0.00 | 0.00 | 72 | 1022.0 |
| 20260901140603 | 67 | 47 | 2.0 | 4.0 | 0.00 | 0.00 | 0.00 | 72 | 1022.0 |
| 20260901140317 | 66 | 29 | 3.0 | 6.0 | 0.00 | 0.00 | 0.00 | 73 | 1021.7 |
| 20260901140303 | 66 | 27 | 2.0 | 6.0 | 0.00 | 0.00 | 0.00 | 73 | 1021.7 |
| 20260901140203 | 66 | 26 | 2.0 | 6.0 | 0.00 | 0.00 | 0.00 | 73 | 1021.9 |
| 20260901140003 | 66 | 170 | 3.0 | 6.0 | 0.00 | 0.00 | 0.00 | 73 | 1021.8 |
| 20260901135917 | 67 | 153 | 1.0 | 4.0 | 0.00 | 0.00 | 0.00 | 73 | 1021.6 |
| 20260901135903 | 67 | 148 | 1.0 | 4.0 | 0.00 | 0.00 | 0.00 | 73 | 1021.7 |
| 20260901135803 | 66 | 137 | 0.0 | 4.0 | 0.00 | 0.00 | 0.00 | 73 | 1021.9 |
| 20260901135603 | 65 | 175 | 2.0 | 4.0 | 0.00 | 0.00 | 0.00 | 73 | 1021.8 |
| 20260901135517 | 66 | 146 | 3.0 | 4.0 | 0.00 | 0.00 | 0.00 | 72 | 1021.7 |
| 20260901135503 | 66 | 139 | 2.0 | 4.0 | 0.00 | 0.00 | 0.00 | 72 | 1021.7 |
| 20260901135403 | 67 | 144 | 1.0 | 4.0 | 0.00 | 0.00 | 0.00 | 73 | 1021.8 |
| 20260901135203 | 66 | 135 | 1.0 | 4.0 | 0.00 | 0.00 | 0.00 | 74 | 1021.8 |
| 20260901135103 | 65 | 116 | 2.0 | 4.0 | 0.00 | 0.00 | 0.00 | 75 | 1021.6 |
| 20260901135003 | 65 | 155 | 2.0 | 4.0 | 0.00 | 0.00 | 0.00 | 75 | 1021.8 |
| 20260901134903 | 65 | 195 | 2.0 | 4.0 | 0.00 | 0.00 | 0.00 | 75 | 1021.7 |
| 20260901134818 | 65 | 206 | 1.0 | 4.0 | 0.00 | 0.00 | 0.00 | 75 | 1022.0 |
| 20260901134803 | 65 | 207 | 1.0 | 4.0 | 0.00 | 0.00 | 0.00 | 75 | 1022.0 |
| 20260901134703 | 65 | 205 | 2.0 | 6.0 | 0.00 | 0.00 | 0.00 | 76 | 1021.8 |
| 20260901134503 | 65 | 169 | 2.0 | 6.0 | 0.00 | 0.00 | 0.00 | 75 | 1021.9 |
| 20260901134418 | 65 | 160 | 2.0 | 6.0 | 0.00 | 0.00 | 0.00 | 75 | 1022.0 |
| 20260901134403 | 65 | 154 | 2.0 | 6.0 | 0.00 | 0.00 | 0.00 | 75 | 1022.0 |
| 20260901134317 | 65 | 150 | 2.0 | 6.0 | 0.00 | 0.00 | 0.00 | 75 | 1021.7 |
| 20260901134303 | 65 | 147 | 3.0 | 6.0 | 0.00 | 0.00 | 0.00 | 75 | 1021.8 |
| 20260901134003 | 65 | 142 | 1.0 | 6.0 | 0.00 | 0.00 | 0.00 | 75 | 1021.9 |
| 20260901133917 | 65 | 174 | 2.0 | 6.0 | 0.00 | 0.00 | 0.00 | 75 | 1022.1 |
| 20260901133903 | 66 | 181 | 1.0 | 6.0 | 0.00 | 0.00 | 0.00 | 76 | 1021.9 |
| 20260901133817 | 65 | 182 | 0.0 | 6.0 | 0.00 | 0.00 | 0.00 | 76 | 1021.8 |
| 20260901133803 | 65 | 185 | 0.0 | 6.0 | 0.00 | 0.00 | 0.00 | 76 | 1021.8 |
| 20260901133503 | 64 | 216 | 2.0 | 4.0 | 0.00 | 0.00 | 0.00 | 77 | 1021.7 |
| 20260901133418 | 64 | 216 | 2.0 | 4.0 | 0.00 | 0.00 | 0.00 | 77 | 1021.9 |
| 20260901133403 | 64 | 220 | 2.0 | 4.0 | 0.00 | 0.00 | 0.00 | 77 | 1021.9 |
| 20260901133303 | 64 | 208 | 2.0 | 4.0 | 0.00 | 0.00 | 0.00 | 76 | 1021.9 |
| 20260901133103 | 65 | 90 | 1.0 | 7.0 | 0.00 | 0.00 | 0.00 | 75 | 1021.8 |
| 20260901133003 | 65 | 93 | 2.0 | 7.0 | 0.00 | 0.00 | 0.00 | 75 | 1021.8 |
| 20260901132903 | 65 | 85 | 2.0 | 7.0 | 0.00 | 0.00 | 0.00 | 75 | 1021.7 |
| 20260901132803 | 65 | 83 | 2.0 | 7.0 | 0.00 | 0.00 | 0.00 | 75 | 1021.9 |
| 20260901132703 | 65 | 95 | 2.0 | 4.0 | 0.00 | 0.00 | 0.00 | 75 | 1021.9 |
| 20260901132603 | 65 | 79 | 2.0 | 4.0 | 0.00 | 0.00 | 0.00 | 75 | 1021.9 |
| 20260901132503 | 65 | 80 | 2.0 | 6.0 | 0.00 | 0.00 | 0.00 | 75 | 1021.9 |
| 20260901132403 | 65 | 68 | 0.0 | 6.0 | 0.00 | 0.00 | 0.00 | 76 | 1021.7 |
| 20260901132306 | 64 | 88 | 2.0 | 7.0 | 0.00 | 0.00 | 0.00 | 76 | 1021.9 |
| 20260901132203 | 64 | 98 | 2.0 | 7.0 | 0.00 | 0.00 | 0.00 | 76 | 1021.9 |
| 20260901132118 | 64 | 108 | 2.0 | 7.0 | 0.00 | 0.00 | 0.00 | 76 | 1021.7 |
| 20260901132103 | 64 | 110 | 2.0 | 7.0 | 0.00 | 0.00 | 0.00 | 76 | 1021.7 |
| 20260901132003 | 64 | 103 | 3.0 | 7.0 | 0.00 | 0.00 | 0.00 | 76 | 1022.0 |
| 20260901131803 | 64 | 95 | 4.0 | 7.0 | 0.00 | 0.00 | 0.00 | 76 | 1021.9 |
| 20260901131703 | 64 | 93 | 4.0 | 6.0 | 0.00 | 0.00 | 0.00 | 76 | 1021.8 |
| 20260901131517 | 64 | 128 | 2.0 | 9.0 | 0.00 | 0.00 | 0.00 | 76 | 1021.9 |
| 20260901131503 | 64 | 123 | 2.0 | 11.0 | 0.00 | 0.00 | 0.00 | 77 | 1021.7 |
| 20260901131403 | 64 | 117 | 2.0 | 11.0 | 0.00 | 0.00 | 0.00 | 77 | 1021.7 |
| 20260901131103 | 62 | 94 | 6.0 | 11.0 | 0.00 | 0.00 | 0.00 | 77 | 1021.9 |
| 20260901131018 | 63 | 93 | 6.0 | 11.0 | 0.00 | 0.00 | 0.00 | 77 | 1021.7 |
| 20260901131003 | 63 | 96 | 6.0 | 11.0 | 0.00 | 0.00 | 0.00 | 77 | 1021.7 |
| 20260901130903 | 63 | 103 | 4.0 | 9.0 | 0.00 | 0.00 | 0.00 | 77 | 1021.7 |
| 20260901130703 | 63 | 104 | 4.0 | 9.0 | 0.00 | 0.00 | 0.00 | 78 | 1021.8 |
| 20260901130603 | 62 | 105 | 5.0 | 9.0 | 0.00 | 0.00 | 0.00 | 78 | 1021.5 |
| 20260901130503 | 63 | 99 | 2.0 | 11.0 | 0.00 | 0.00 | 0.00 | 78 | 1021.7 |
| 20260901130403 | 63 | 90 | 3.0 | 11.0 | 0.00 | 0.00 | 0.00 | 79 | 1021.9 |
| 20260901130303 | 63 | 83 | 4.0 | 11.0 | 0.00 | 0.00 | 0.00 | 78 | 1021.9 |
| 20260901130203 | 63 | 84 | 2.0 | 11.0 | 0.00 | 0.00 | 0.00 | 79 | 1021.6 |
| 20260901130103 | 62 | 77 | 4.0 | 11.0 | 0.00 | 0.00 | 0.00 | 78 | 1021.6 |
| 20260901130003 | 63 | 54 | 5.0 | 11.0 | 0.00 | 0.00 | 0.00 | 78 | 1021.6 |
| 20260901125903 | 63 | 67 | 2.0 | 11.0 | 0.00 | 0.00 | 0.00 | 78 | 1021.7 |
| 20260901125817 | 63 | 71 | 2.0 | 11.0 | 0.00 | 0.00 | 0.00 | 78 | 1021.8 |
| 20260901125803 | 63 | 77 | 2.0 | 11.0 | 0.00 | 0.00 | 0.00 | 78 | 1021.8 |
| 20260901125703 | 63 | 79 | 3.0 | 11.0 | 0.00 | 0.00 | 0.00 | 78 | 1021.7 |
| 20260901125503 | 63 | 109 | 3.0 | 11.0 | 0.00 | 0.00 | 0.00 | 79 | 1021.8 |
| 20260901125403 | 62 | 110 | 4.0 | 11.0 | 0.00 | 0.00 | 0.00 | 79 | 1021.7 |
| 20260901125308 | 62 | 125 | 4.0 | 7.0 | 0.00 | 0.00 | 0.00 | 79 | 1021.6 |
| 20260901125203 | 62 | 115 | 2.0 | 7.0 | 0.00 | 0.00 | 0.00 | 79 | 1021.6 |
| 20260901125117 | 62 | 120 | 1.0 | 7.0 | 0.00 | 0.00 | 0.00 | 79 | 1021.7 |
| 20260901125103 | 62 | 119 | 3.0 | 7.0 | 0.00 | 0.00 | 0.00 | 79 | 1021.6 |
| 20260901125003 | 62 | 107 | 3.0 | 7.0 | 0.00 | 0.00 | 0.00 | 79 | 1021.7 |
| 20260901124803 | 62 | 88 | 4.0 | 7.0 | 0.00 | 0.00 | 0.00 | 79 | 1021.4 |
| 20260901124703 | 63 | 117 | 2.0 | 6.0 | 0.00 | 0.00 | 0.00 | 79 | 1021.4 |
| 20260901124603 | 63 | 113 | 1.0 | 6.0 | 0.00 | 0.00 | 0.00 | 81 | 1021.6 |
| 20260901124504 | 63 | 103 | 1.0 | 6.0 | 0.00 | 0.00 | 0.00 | 81 | 1021.5 |
| 20260901124403 | 62 | 105 | 2.0 | 6.0 | 0.00 | 0.00 | 0.00 | 81 | 1021.5 |
| 20260901124303 | 62 | 113 | 4.0 | 8.0 | 0.00 | 0.00 | 0.00 | 81 | 1021.4 |
| 20260901124203 | 62 | 115 | 2.0 | 8.0 | 0.00 | 0.00 | 0.00 | 81 | 1021.4 |
| 20260901124103 | 62 | 115 | 1.0 | 8.0 | 0.00 | 0.00 | 0.00 | 82 | 1021.5 |
| 20260901124018 | 62 | 117 | 2.0 | 8.0 | 0.00 | 0.00 | 0.00 | 82 | 1021.4 |
| 20260901124003 | 62 | 118 | 2.0 | 8.0 | 0.00 | 0.00 | 0.00 | 82 | 1021.4 |
| 20260901123903 | 62 | 122 | 2.0 | 8.0 | 0.00 | 0.00 | 0.00 | 82 | 1021.5 |
| 20260901123703 | 62 | 133 | 2.0 | 6.0 | 0.00 | 0.00 | 0.00 | 83 | 1021.4 |
| 20260901123618 | 62 | 129 | 1.0 | 4.0 | 0.00 | 0.00 | 0.00 | 83 | 1021.6 |
| 20260901123603 | 62 | 128 | 1.0 | 4.0 | 0.00 | 0.00 | 0.00 | 83 | 1021.6 |
| 20260901123503 | 61 | 130 | 1.0 | 6.0 | 0.00 | 0.00 | 0.00 | 84 | 1021.5 |
| 20260901123303 | 61 | 110 | 1.0 | 6.0 | 0.00 | 0.00 | 0.00 | 84 | 1021.6 |
| 20260901123203 | 61 | 107 | 2.0 | 6.0 | 0.00 | 0.00 | 0.00 | 84 | 1021.5 |
| 20260901123103 | 60 | 108 | 3.0 | 6.0 | 0.00 | 0.00 | 0.00 | 85 | 1021.2 |
| 20260901123003 | 60 | 98 | 4.0 | 6.0 | 0.00 | 0.00 | 0.00 | 85 | 1021.5 |
| 20260901122903 | 60 | 104 | 2.0 | 4.0 | 0.00 | 0.00 | 0.00 | 85 | 1021.8 |
| 20260901122803 | 60 | 119 | 1.0 | 4.0 | 0.00 | 0.00 | 0.00 | 86 | 1021.4 |
| 20260901122703 | 60 | 122 | 1.0 | 4.0 | 0.00 | 0.00 | 0.00 | 87 | 1021.4 |
| 20260901122603 | 60 | 133 | 2.0 | 4.0 | 0.00 | 0.00 | 0.00 | 87 | 1021.4 |
| 20260901122503 | 59 | 145 | 2.0 | 4.0 | 0.00 | 0.00 | 0.00 | 87 | 1021.4 |
| 20260901122403 | 59 | 141 | 1.0 | 6.0 | 0.00 | 0.00 | 0.00 | 87 | 1021.6 |
| 20260901122306 | 59 | 145 | 2.0 | 6.0 | 0.00 | 0.00 | 0.00 | 88 | 1021.4 |
| 20260901122203 | 59 | 147 | 2.0 | 6.0 | 0.00 | 0.00 | 0.00 | 88 | 1021.7 |
| 20260901122103 | 58 | 158 | 2.0 | 6.0 | 0.00 | 0.00 | 0.00 | 88 | 1021.5 |
| 20260901122003 | 58 | 153 | 3.0 | 6.0 | 0.00 | 0.00 | 0.00 | 88 | 1021.5 |
| 20260901121917 | 58 | 141 | 3.0 | 6.0 | 0.00 | 0.00 | 0.00 | 88 | 1021.6 |
| 20260901121903 | 59 | 142 | 2.0 | 6.0 | 0.00 | 0.00 | 0.00 | 89 | 1021.5 |
| 20260901121803 | 58 | 125 | 2.0 | 6.0 | 0.00 | 0.00 | 0.00 | 89 | 1021.7 |
| 20260901121603 | 58 | 134 | 2.0 | 4.0 | 0.00 | 0.00 | 0.00 | 89 | 1021.6 |
| 20260901121503 | 58 | 149 | 1.0 | 4.0 | 0.00 | 0.00 | 0.00 | 90 | 1021.7 |
| 20260901121403 | 58 | 179 | 1.0 | 4.0 | 0.00 | 0.00 | 0.00 | 90 | 1021.5 |
| 20260901121303 | 58 | 199 | 1.0 | 4.0 | 0.00 | 0.00 | 0.00 | 91 | 1021.6 |
| 20260901121203 | 58 | 204 | 1.0 | 4.0 | 0.00 | 0.00 | 0.00 | 91 | 1021.7 |
| 20260901121103 | 57 | 200 | 2.0 | 4.0 | 0.00 | 0.00 | 0.00 | 91 | 1021.5 |
| 20260901121003 | 57 | 173 | 2.0 | 4.0 | 0.00 | 0.00 | 0.00 | 91 | 1021.5 |
| 20260901120903 | 58 | 165 | 1.0 | 2.0 | 0.00 | 0.00 | 0.00 | 91 | 1021.8 |
| 20260901120803 | 58 | 144 | 2.0 | 2.0 | 0.00 | 0.00 | 0.00 | 91 | 1021.3 |
| 20260901120703 | 57 | 139 | 1.0 | 2.0 | 0.00 | 0.00 | 0.00 | 92 | 1021.5 |
| 20260901120603 | 58 | 160 | 0.0 | 4.0 | 0.00 | 0.00 | 0.00 | 92 | 1021.3 |
| 20260901120503 | 58 | 173 | 1.0 | 4.0 | 0.00 | 0.00 | 0.00 | 92 | 1021.4 |
| 20260901120403 | 58 | 177 | 0.0 | 4.0 | 0.00 | 0.00 | 0.00 | 92 | 1021.3 |
| 20260901120303 | 57 | 186 | 1.0 | 4.0 | 0.00 | 0.00 | 0.00 | 93 | 1021.3 |
| 20260901120203 | 57 | 188 | 0.0 | 4.0 | 0.00 | 0.00 | 0.00 | 93 | 1021.6 |
| 20260901120003 | 57 | 161 | 1.0 | 4.0 | 0.00 | 0.00 | 0.00 | 93 | 1021.2 |
| 20260901115903 | 57 | 161 | 0.0 | 4.0 | 0.00 | 0.00 | 0.00 | 94 | 1021.3 |
| 20260901115803 | 56 | 154 | 1.0 | 4.0 | 0.00 | 0.00 | 0.00 | 93 | 1021.0 |
| 20260901115703 | 57 | 125 | 1.0 | 4.0 | 0.00 | 0.00 | 0.00 | 94 | 1021.2 |
| 20260901115603 | 57 | 118 | 1.0 | 4.0 | 0.00 | 0.00 | 0.00 | 94 | 1021.2 |
| 20260901115503 | 57 | 118 | 0.0 | 2.0 | 0.00 | 0.00 | 0.00 | 94 | 1021.0 |
| 20260901115403 | 57 | 116 | 0.0 | 4.0 | 0.00 | 0.00 | 0.00 | 94 | 1021.0 |
| 20260901115306 | 56 | 111 | 0.0 | 4.0 | 0.00 | 0.00 | 0.00 | 94 | 1021.1 |
| 20260901115203 | 57 | 106 | 0.0 | 4.0 | 0.00 | 0.00 | 0.00 | 94 | 1021.3 |
| 20260901115103 | 56 | 117 | 0.0 | 4.0 | 0.00 | 0.00 | 0.00 | 95 | 1021.0 |
| 20260901115003 | 56 | 131 | 0.0 | 4.0 | 0.00 | 0.00 | 0.00 | 95 | 1021.1 |
| 20260901114903 | 56 | 139 | 2.0 | 4.0 | 0.00 | 0.00 | 0.00 | 95 | 1021.2 |
| 20260901114803 | 56 | 148 | 1.0 | 2.0 | 0.00 | 0.00 | 0.00 | 95 | 1021.2 |
| 20260901114703 | 56 | 154 | 0.0 | 4.0 | 0.00 | 0.00 | 0.00 | 95 | 1021.1 |
| 20260901114603 | 56 | 125 | 1.0 | 4.0 | 0.00 | 0.00 | 0.00 | 95 | 1021.1 |
| 20260901114503 | 56 | 120 | 1.0 | 4.0 | 0.00 | 0.00 | 0.00 | 95 | 1021.1 |
| 20260901114403 | 56 | 118 | 0.0 | 4.0 | 0.00 | 0.00 | 0.00 | 95 | 1021.1 |
| 20260901114303 | 55 | 119 | 0.0 | 4.0 | 0.00 | 0.00 | 0.00 | 95 | 1021.1 |
| 20260901114203 | 55 | 139 | 2.0 | 4.0 | 0.00 | 0.00 | 0.00 | 95 | 1021.2 |
| 20260901114117 | 56 | 163 | 0.0 | 4.0 | 0.00 | 0.00 | 0.00 | 95 | 1021.0 |
| 20260901114103 | 56 | 166 | 0.0 | 4.0 | 0.00 | 0.00 | 0.00 | 95 | 1021.0 |
| 20260901114003 | 55 | 203 | 1.0 | 4.0 | 0.00 | 0.00 | 0.00 | 95 | 1021.0 |
| 20260901113803 | 55 | 188 | 1.0 | 4.0 | 0.00 | 0.00 | 0.00 | 96 | 1020.8 |
| 20260901113703 | 55 | 158 | 0.0 | 4.0 | 0.00 | 0.00 | 0.00 | 96 | 1021.0 |
| 20260901113603 | 55 | 154 | 1.0 | 4.0 | 0.00 | 0.00 | 0.00 | 96 | 1021.1 |
| 20260901113503 | 55 | 117 | 1.0 | 4.0 | 0.00 | 0.00 | 0.00 | 96 | 1021.0 |
| 20260901113403 | 55 | 101 | 1.0 | 2.0 | 0.00 | 0.00 | 0.00 | 96 | 1020.8 |
| 20260901113303 | 55 | 108 | 1.0 | 2.0 | 0.00 | 0.00 | 0.00 | 96 | 1020.8 |
| 20260901113218 | 55 | 90 | 1.0 | 2.0 | 0.00 | 0.00 | 0.00 | 96 | 1021.1 |
| 20260901113203 | 55 | 71 | 1.0 | 2.0 | 0.00 | 0.00 | 0.00 | 96 | 1021.1 |
| 20260901113103 | 55 | 112 | 1.0 | 2.0 | 0.00 | 0.00 | 0.00 | 96 | 1020.8 |
| 20260901112903 | 55 | 46 | 0.0 | 4.0 | 0.00 | 0.00 | 0.00 | 96 | 1020.8 |
| 20260901112803 | 55 | 46 | 0.0 | 4.0 | 0.00 | 0.00 | 0.00 | 96 | 1020.7 |
| 20260901112703 | 55 | 168 | 0.0 | 4.0 | 0.00 | 0.00 | 0.00 | 96 | 1020.8 |
| 20260901112603 | 55 | 173 | 0.0 | 4.0 | 0.00 | 0.00 | 0.00 | 96 | 1020.8 |
| 20260901112503 | 54 | 136 | 2.0 | 4.0 | 0.00 | 0.00 | 0.00 | 96 | 1020.9 |
| 20260901112403 | 54 | 135 | 0.0 | 4.0 | 0.00 | 0.00 | 0.00 | 96 | 1020.7 |
| 20260901112306 | 54 | 139 | 1.0 | 4.0 | 0.00 | 0.00 | 0.00 | 96 | 1020.7 |
| 20260901112203 | 54 | 136 | 0.0 | 2.0 | 0.00 | 0.00 | 0.00 | 96 | 1020.6 |
| 20260901112103 | 55 | 137 | 0.0 | 2.0 | 0.00 | 0.00 | 0.00 | 96 | 1020.7 |
| 20260901112003 | 54 | 147 | 0.0 | 2.0 | 0.00 | 0.00 | 0.00 | 96 | 1020.7 |
| 20260901111903 | 54 | 153 | 0.0 | 2.0 | 0.00 | 0.00 | 0.00 | 96 | 1020.8 |
| 20260901111803 | 54 | 167 | 0.0 | 2.0 | 0.00 | 0.00 | 0.00 | 96 | 1020.8 |
| 20260901111703 | 54 | 186 | 0.0 | 2.0 | 0.00 | 0.00 | 0.00 | 96 | 1020.8 |
| 20260901111603 | 54 | 194 | 0.0 | 2.0 | 0.00 | 0.00 | 0.00 | 96 | 1020.5 |
| 20260901111503 | 54 | 209 | 1.0 | 2.0 | 0.00 | 0.00 | 0.00 | 96 | 1020.7 |
| 20260901111403 | 54 | 217 | 1.0 | 4.0 | 0.00 | 0.00 | 0.00 | 96 | 1020.8 |
| 20260901111317 | 54 | 213 | 1.0 | 4.0 | 0.00 | 0.00 | 0.00 | 96 | 1020.7 |
| 20260901111303 | 54 | 212 | 1.0 | 4.0 | 0.00 | 0.00 | 0.00 | 96 | 1020.7 |
| 20260901111204 | 54 | 208 | 0.0 | 4.0 | 0.00 | 0.00 | 0.00 | 96 | 1020.7 |
| 20260901111003 | 53 | 213 | 1.0 | 4.0 | 0.00 | 0.00 | 0.00 | 96 | 1020.6 |
| 20260901110903 | 53 | 223 | 2.0 | 4.0 | 0.00 | 0.00 | 0.00 | 96 | 1020.8 |
| 20260901110803 | 54 | 234 | 1.0 | 4.0 | 0.00 | 0.00 | 0.00 | 96 | 1020.6 |
| 20260901110703 | 53 | 224 | 0.0 | 4.0 | 0.00 | 0.00 | 0.00 | 96 | 1020.8 |
| 20260901110605 | 53 | 227 | 1.0 | 4.0 | 0.00 | 0.00 | 0.00 | 96 | 1020.7 |
| 20260901110503 | 53 | 218 | 1.0 | 2.0 | 0.00 | 0.00 | 0.00 | 96 | 1020.7 |
| 20260901110403 | 53 | 196 | 0.0 | 2.0 | 0.00 | 0.00 | 0.00 | 96 | 1020.7 |
| 20260901110318 | 53 | 163 | 1.0 | 4.0 | 0.00 | 0.00 | 0.00 | 96 | 1020.7 |
| 20260901110303 | 53 | 159 | 1.0 | 4.0 | 0.00 | 0.00 | 0.00 | 96 | 1020.7 |
| 20260901110218 | 53 | 165 | 1.0 | 4.0 | 0.00 | 0.00 | 0.00 | 96 | 1020.7 |
| 20260901110203 | 53 | 163 | 1.0 | 4.0 | 0.00 | 0.00 | 0.00 | 96 | 1020.7 |
| 20260901110017 | 53 | 139 | 0.0 | 4.0 | 0.00 | 0.00 | 0.00 | 96 | 1020.7 |
| 20260901105903 | 53 | 151 | 1.0 | 4.0 | 0.00 | 0.00 | 0.00 | 96 | 1020.4 |
| 20260901105703 | 53 | 171 | 1.0 | 4.0 | 0.00 | 0.00 | 0.00 | 96 | 1020.6 |
| 20260901105603 | 53 | 158 | 1.0 | 6.0 | 0.00 | 0.00 | 0.00 | 96 | 1020.8 |
| 20260901105503 | 53 | 151 | 0.0 | 6.0 | 0.00 | 0.00 | 0.00 | 96 | 1020.8 |
| 20260901105403 | 53 | 148 | 1.0 | 6.0 | 0.00 | 0.00 | 0.00 | 96 | 1020.5 |
| 20260901105305 | 53 | 137 | 1.0 | 6.0 | 0.00 | 0.00 | 0.00 | 96 | 1020.8 |
| 20260901105203 | 53 | 143 | 1.0 | 6.0 | 0.00 | 0.00 | 0.00 | 96 | 1020.6 |
| 20260901105103 | 53 | 166 | 2.0 | 4.0 | 0.00 | 0.00 | 0.00 | 96 | 1020.6 |
| 20260901105003 | 53 | 177 | 1.0 | 6.0 | 0.00 | 0.00 | 0.00 | 96 | 1020.7 |
| 20260901104903 | 53 | 194 | 1.0 | 8.0 | 0.00 | 0.00 | 0.00 | 96 | 1020.6 |
| 20260901104803 | 53 | 197 | 2.0 | 8.0 | 0.00 | 0.00 | 0.00 | 96 | 1020.5 |
| 20260901104717 | 53 | 186 | 2.0 | 8.0 | 0.00 | 0.00 | 0.00 | 96 | 1020.8 |
| 20260901104703 | 53 | 182 | 2.0 | 8.0 | 0.00 | 0.00 | 0.00 | 96 | 1020.5 |
| 20260901104603 | 53 | 180 | 2.0 | 8.0 | 0.00 | 0.00 | 0.00 | 96 | 1020.5 |
| 20260901104403 | 53 | 163 | 3.0 | 8.0 | 0.00 | 0.00 | 0.00 | 96 | 1020.6 |
| 20260901104304 | 53 | 142 | 4.0 | 8.0 | 0.00 | 0.00 | 0.00 | 96 | 1020.7 |
| 20260901104203 | 53 | 146 | 1.0 | 7.0 | 0.00 | 0.00 | 0.00 | 96 | 1020.5 |
| 20260901104103 | 53 | 149 | 1.0 | 7.0 | 0.00 | 0.00 | 0.00 | 96 | 1020.6 |
| 20260901104017 | 53 | 149 | 2.0 | 7.0 | 0.00 | 0.00 | 0.00 | 96 | 1020.6 |
| 20260901104003 | 53 | 150 | 2.0 | 7.0 | 0.00 | 0.00 | 0.00 | 96 | 1020.6 |
| 20260901103903 | 53 | 147 | 2.0 | 7.0 | 0.00 | 0.00 | 0.00 | 96 | 1020.5 |
| 20260901103703 | 53 | 202 | 1.0 | 6.0 | 0.00 | 0.00 | 0.00 | 96 | 1020.6 |
| 20260901103603 | 53 | 202 | 0.0 | 6.0 | 0.00 | 0.00 | 0.00 | 96 | 1020.4 |
| 20260901103503 | 53 | 211 | 1.0 | 6.0 | 0.00 | 0.00 | 0.00 | 96 | 1020.5 |
| 20260901103403 | 53 | 209 | 2.0 | 6.0 | 0.00 | 0.00 | 0.00 | 96 | 1020.5 |
| 20260901103303 | 53 | 207 | 2.0 | 6.0 | 0.00 | 0.00 | 0.00 | 96 | 1020.4 |
| 20260901103203 | 53 | 200 | 2.0 | 6.0 | 0.00 | 0.00 | 0.00 | 96 | 1020.3 |
| 20260901103103 | 53 | 199 | 2.0 | 6.0 | 0.00 | 0.00 | 0.00 | 96 | 1020.4 |
| 20260901103005 | 53 | 177 | 2.0 | 6.0 | 0.00 | 0.00 | 0.00 | 96 | 1020.3 |
| 20260901102904 | 53 | 180 | 2.0 | 6.0 | 0.00 | 0.00 | 0.00 | 96 | 1020.4 |
| 20260901102803 | 53 | 199 | 2.0 | 6.0 | 0.00 | 0.00 | 0.00 | 96 | 1020.3 |
| 20260901102703 | 54 | 211 | 2.0 | 4.0 | 0.00 | 0.00 | 0.00 | 96 | 1020.2 |
| 20260901102603 | 54 | 210 | 2.0 | 4.0 | 0.00 | 0.00 | 0.00 | 96 | 1020.5 |
| 20260901102503 | 54 | 225 | 2.0 | 4.0 | 0.00 | 0.00 | 0.00 | 96 | 1020.3 |
| 20260901102403 | 54 | 231 | 2.0 | 4.0 | 0.00 | 0.00 | 0.00 | 96 | 1020.2 |
| 20260901102317 | 54 | 220 | 2.0 | 4.0 | 0.00 | 0.00 | 0.00 | 96 | 1020.3 |
| 20260901102306 | 54 | 215 | 2.0 | 4.0 | 0.00 | 0.00 | 0.00 | 96 | 1020.2 |
| 20260901102203 | 54 | 212 | 1.0 | 4.0 | 0.00 | 0.00 | 0.00 | 96 | 1020.3 |
| 20260901102003 | 54 | 229 | 0.0 | 7.0 | 0.00 | 0.00 | 0.00 | 96 | 1020.2 |
| 20260901101903 | 54 | 229 | 1.0 | 7.0 | 0.00 | 0.00 | 0.00 | 96 | 1020.5 |
| 20260901101803 | 54 | 233 | 1.0 | 7.0 | 0.00 | 0.00 | 0.00 | 96 | 1020.2 |
| 20260901101703 | 54 | 241 | 1.0 | 7.0 | 0.00 | 0.00 | 0.00 | 96 | 1020.4 |
| 20260901101603 | 54 | 221 | 3.0 | 7.0 | 0.00 | 0.00 | 0.00 | 96 | 1020.3 |
| 20260901101503 | 54 | 214 | 1.0 | 4.0 | 0.00 | 0.00 | 0.00 | 96 | 1020.5 |
| 20260901101417 | 54 | 210 | 0.0 | 4.0 | 0.00 | 0.00 | 0.00 | 96 | 1020.1 |
| 20260901101403 | 54 | 208 | 0.0 | 4.0 | 0.00 | 0.00 | 0.00 | 96 | 1020.1 |
| 20260901101303 | 54 | 202 | 1.0 | 4.0 | 0.00 | 0.00 | 0.00 | 96 | 1020.2 |
| 20260901101218 | 54 | 199 | 1.0 | 4.0 | 0.00 | 0.00 | 0.00 | 96 | 1020.1 |
| 20260901101103 | 53 | 213 | 1.0 | 4.0 | 0.00 | 0.00 | 0.00 | 96 | 1020.3 |
| 20260901100918 | 53 | 217 | 0.0 | 4.0 | 0.00 | 0.00 | 0.00 | 96 | 1020.0 |
| 20260901100903 | 53 | 218 | 0.0 | 4.0 | 0.00 | 0.00 | 0.00 | 96 | 1020.0 |
| 20260901100803 | 53 | 221 | 0.0 | 4.0 | 0.00 | 0.00 | 0.00 | 96 | 1020.0 |
| 20260901100603 | 53 | 223 | 2.0 | 4.0 | 0.00 | 0.00 | 0.00 | 96 | 1020.1 |
| 20260901100503 | 53 | 225 | 2.0 | 4.0 | 0.00 | 0.00 | 0.00 | 96 | 1019.9 |
| 20260901100403 | 53 | 227 | 1.0 | 4.0 | 0.00 | 0.00 | 0.00 | 96 | 1020.3 |
| 20260901100317 | 53 | 220 | 1.0 | 4.0 | 0.00 | 0.00 | 0.00 | 96 | 1020.2 |
| 20260901100303 | 53 | 218 | 1.0 | 4.0 | 0.00 | 0.00 | 0.00 | 96 | 1020.2 |
| 20260901100218 | 53 | 214 | 1.0 | 4.0 | 0.00 | 0.00 | 0.00 | 96 | 1019.9 |
| 20260901100203 | 53 | 216 | 1.0 | 4.0 | 0.00 | 0.00 | 0.00 | 96 | 1019.9 |
| 20260901095903 | 53 | 204 | 1.0 | 4.0 | 0.00 | 0.00 | 0.00 | 96 | 1020.3 |
| 20260901095818 | 53 | 204 | 1.0 | 4.0 | 0.00 | 0.00 | 0.00 | 96 | 1020.1 |
| 20260901095803 | 53 | 207 | 1.0 | 4.0 | 0.00 | 0.00 | 0.00 | 96 | 1020.1 |
| 20260901095703 | 54 | 208 | 1.0 | 4.0 | 0.00 | 0.00 | 0.00 | 96 | 1020.1 |
| 20260901095503 | 54 | 217 | 1.0 | 4.0 | 0.00 | 0.00 | 0.00 | 96 | 1019.8 |
| 20260901095403 | 53 | 211 | 1.0 | 4.0 | 0.00 | 0.00 | 0.00 | 96 | 1020.0 |
| 20260901095306 | 54 | 214 | 1.0 | 4.0 | 0.00 | 0.00 | 0.00 | 96 | 1019.9 |
| 20260901095203 | 54 | 211 | 1.0 | 4.0 | 0.00 | 0.00 | 0.00 | 96 | 1020.0 |
| 20260901095103 | 53 | 196 | 0.0 | 2.0 | 0.00 | 0.00 | 0.00 | 96 | 1020.1 |
| 20260901095003 | 53 | 209 | 0.0 | 2.0 | 0.00 | 0.00 | 0.00 | 96 | 1019.9 |
| 20260901094903 | 53 | 195 | 0.0 | 4.0 | 0.00 | 0.00 | 0.00 | 96 | 1019.7 |
| 20260901094803 | 53 | 196 | 0.0 | 4.0 | 0.00 | 0.00 | 0.00 | 96 | 1019.8 |
| 20260901094703 | 53 | 191 | 0.0 | 4.0 | 0.00 | 0.00 | 0.00 | 96 | 1019.8 |
| 20260901094603 | 53 | 187 | 0.0 | 4.0 | 0.00 | 0.00 | 0.00 | 96 | 1019.9 |
| 20260901094503 | 53 | 180 | 0.0 | 4.0 | 0.00 | 0.00 | 0.00 | 96 | 1019.7 |
| 20260901094403 | 53 | 177 | 1.0 | 4.0 | 0.00 | 0.00 | 0.00 | 96 | 1019.8 |
| 20260901094303 | 53 | 201 | 0.0 | 2.0 | 0.00 | 0.00 | 0.00 | 96 | 1019.8 |
| 20260901094203 | 53 | 211 | 0.0 | 2.0 | 0.00 | 0.00 | 0.00 | 96 | 1020.0 |
| 20260901094103 | 53 | 219 | 1.0 | 2.0 | 0.00 | 0.00 | 0.00 | 96 | 1019.9 |
| 20260901094003 | 53 | 224 | 0.0 | 2.0 | 0.00 | 0.00 | 0.00 | 96 | 1019.8 |
| 20260901093903 | 53 | 234 | 1.0 | 2.0 | 0.00 | 0.00 | 0.00 | 96 | 1019.8 |
| 20260901093803 | 53 | 229 | 1.0 | 2.0 | 0.00 | 0.00 | 0.00 | 96 | 1019.7 |
| 20260901093703 | 53 | 225 | 0.0 | 2.0 | 0.00 | 0.00 | 0.00 | 96 | 1019.7 |
| 20260901093617 | 53 | 229 | 0.0 | 2.0 | 0.00 | 0.00 | 0.00 | 96 | 1019.8 |
| 20260901093603 | 53 | 232 | 0.0 | 2.0 | 0.00 | 0.00 | 0.00 | 96 | 1019.8 |
| 20260901093503 | 53 | 240 | 0.0 | 2.0 | 0.00 | 0.00 | 0.00 | 96 | 1019.5 |
| 20260901093303 | 53 | 240 | 0.0 | 2.0 | 0.00 | 0.00 | 0.00 | 96 | 1019.4 |
| 20260901093203 | 53 | 242 | 0.0 | 2.0 | 0.00 | 0.00 | 0.00 | 96 | 1019.9 |
| 20260901093103 | 53 | 237 | 0.0 | 2.0 | 0.00 | 0.00 | 0.00 | 96 | 1019.5 |
| 20260901093003 | 53 | 234 | 0.0 | 2.0 | 0.00 | 0.00 | 0.00 | 96 | 1019.4 |
| 20260901092903 | 53 | 231 | 0.0 | 2.0 | 0.00 | 0.00 | 0.00 | 96 | 1019.4 |
| 20260901092818 | 53 | 239 | 0.0 | 2.0 | 0.00 | 0.00 | 0.00 | 96 | 1019.4 |
| 20260901092803 | 53 | 243 | 0.0 | 2.0 | 0.00 | 0.00 | 0.00 | 96 | 1019.4 |
| 20260901092703 | 53 | 243 | 0.0 | 2.0 | 0.00 | 0.00 | 0.00 | 96 | 1019.5 |
| 20260901092503 | 53 | 240 | 0.0 | 2.0 | 0.00 | 0.00 | 0.00 | 96 | 1019.3 |
| 20260901092418 | 53 | 236 | 2.0 | 2.0 | 0.00 | 0.00 | 0.00 | 96 | 1019.6 |
| 20260901092403 | 53 | 234 | 2.0 | 2.0 | 0.00 | 0.00 | 0.00 | 96 | 1019.6 |
| 20260901092305 | 53 | 228 | 0.0 | 2.0 | 0.00 | 0.00 | 0.00 | 96 | 1019.5 |
| 20260901092103 | 53 | 227 | 0.0 | 2.0 | 0.00 | 0.00 | 0.00 | 96 | 1019.4 |
| 20260901092003 | 53 | 229 | 0.0 | 2.0 | 0.00 | 0.00 | 0.00 | 96 | 1019.6 |
| 20260901091903 | 53 | 250 | 0.0 | 2.0 | 0.00 | 0.00 | 0.00 | 96 | 1019.4 |
| 20260901091818 | 54 | 245 | 0.0 | 2.0 | 0.00 | 0.00 | 0.00 | 96 | 1019.2 |
| 20260901091803 | 54 | 225 | 0.0 | 2.0 | 0.00 | 0.00 | 0.00 | 96 | 1019.2 |
| 20260901091716 | 54 | 188 | 0.0 | 2.0 | 0.00 | 0.00 | 0.00 | 96 | 1019.4 |
| 20260901091704 | 54 | 191 | 0.0 | 2.0 | 0.00 | 0.00 | 0.00 | 96 | 1019.4 |
| 20260901091403 | 54 | 207 | 0.0 | 2.0 | 0.00 | 0.00 | 0.00 | 96 | 1019.2 |
| 20260901091317 | 54 | 201 | 1.0 | 2.0 | 0.00 | 0.00 | 0.00 | 96 | 1019.1 |
| 20260901091303 | 54 | 204 | 1.0 | 2.0 | 0.00 | 0.00 | 0.00 | 96 | 1019.1 |
| 20260901091203 | 54 | 201 | 0.0 | 2.0 | 0.00 | 0.00 | 0.00 | 96 | 1019.2 |
| 20260901091003 | 54 | 190 | 0.0 | 2.0 | 0.00 | 0.00 | 0.00 | 96 | 1019.3 |
| 20260901090903 | 54 | 185 | 0.0 | 2.0 | 0.00 | 0.00 | 0.00 | 96 | 1019.1 |
| 20260901090803 | 54 | 200 | 1.0 | 4.0 | 0.00 | 0.00 | 0.00 | 96 | 1019.2 |
| 20260901090703 | 54 | 210 | 1.0 | 4.0 | 0.00 | 0.00 | 0.00 | 96 | 1019.3 |
| 20260901090603 | 54 | 211 | 1.0 | 4.0 | 0.00 | 0.00 | 0.00 | 96 | 1019.3 |
| 20260901090503 | 54 | 200 | 0.0 | 4.0 | 0.00 | 0.00 | 0.00 | 96 | 1019.5 |
| 20260901090403 | 54 | 197 | 1.0 | 4.0 | 0.00 | 0.00 | 0.00 | 96 | 1019.3 |
| 20260901090303 | 54 | 184 | 0.0 | 4.0 | 0.00 | 0.00 | 0.00 | 96 | 1019.1 |
| 20260901090203 | 54 | 188 | 0.0 | 4.0 | 0.00 | 0.00 | 0.00 | 96 | 1019.1 |
| 20260901090003 | 54 | 225 | 0.0 | 4.0 | 0.00 | 0.00 | 0.00 | 96 | 1019.0 |
| 20260901085903 | 54 | 212 | 1.0 | 4.0 | 0.00 | 0.00 | 0.00 | 96 | 1019.2 |
| 20260901085803 | 54 | 212 | 1.0 | 4.0 | 0.00 | 0.00 | 0.00 | 96 | 1019.3 |
| 20260901085703 | 54 | 222 | 0.0 | 4.0 | 0.00 | 0.00 | 0.00 | 96 | 1019.1 |
| 20260901085603 | 54 | 217 | 0.0 | 4.0 | 0.00 | 0.00 | 0.00 | 96 | 1019.3 |
| 20260901085504 | 54 | 202 | 2.0 | 7.0 | 0.00 | 0.00 | 0.00 | 96 | 1019.3 |
| 20260901085403 | 54 | 219 | 2.0 | 7.0 | 0.00 | 0.00 | 0.00 | 96 | 1019.3 |
| 20260901085305 | 54 | 209 | 1.0 | 7.0 | 0.00 | 0.00 | 0.00 | 96 | 1019.4 |
| 20260901085203 | 54 | 205 | 1.0 | 7.0 | 0.00 | 0.00 | 0.00 | 96 | 1019.5 |
| 20260901085103 | 54 | 202 | 2.0 | 7.0 | 0.00 | 0.00 | 0.00 | 96 | 1019.5 |
| 20260901085003 | 54 | 192 | 2.0 | 7.0 | 0.00 | 0.00 | 0.00 | 95 | 1019.2 |
| 20260901084903 | 54 | 185 | 3.0 | 7.0 | 0.00 | 0.00 | 0.00 | 95 | 1019.3 |
| 20260901084818 | 54 | 187 | 2.0 | 7.0 | 0.00 | 0.00 | 0.00 | 95 | 1019.2 |
| 20260901084803 | 54 | 191 | 2.0 | 7.0 | 0.00 | 0.00 | 0.00 | 95 | 1019.2 |
| 20260901084718 | 54 | 186 | 3.0 | 7.0 | 0.00 | 0.00 | 0.00 | 95 | 1019.5 |
| 20260901084708 | 54 | 182 | 2.0 | 7.0 | 0.00 | 0.00 | 0.00 | 95 | 1019.3 |
| 20260901084617 | 54 | 175 | 3.0 | 7.0 | 0.00 | 0.00 | 0.00 | 95 | 1019.1 |
| 20260901084418 | 54 | 183 | 1.0 | 6.0 | 0.00 | 0.00 | 0.00 | 95 | 1019.3 |
| 20260901084303 | 54 | 184 | 2.0 | 6.0 | 0.00 | 0.00 | 0.00 | 95 | 1019.5 |
| 20260901084103 | 54 | 186 | 2.0 | 6.0 | 0.00 | 0.00 | 0.00 | 95 | 1019.1 |
| 20260901084003 | 54 | 183 | 2.0 | 6.0 | 0.00 | 0.00 | 0.00 | 95 | 1019.3 |
| 20260901083917 | 54 | 207 | 2.0 | 7.0 | 0.00 | 0.00 | 0.00 | 95 | 1019.2 |
| 20260901083903 | 54 | 206 | 2.0 | 7.0 | 0.00 | 0.00 | 0.00 | 95 | 1019.4 |
| 20260901083603 | 54 | 171 | 2.0 | 7.0 | 0.00 | 0.00 | 0.00 | 95 | 1019.2 |
| 20260901083503 | 54 | 183 | 2.0 | 7.0 | 0.00 | 0.00 | 0.00 | 95 | 1019.3 |
| 20260901083403 | 54 | 176 | 2.0 | 6.0 | 0.00 | 0.00 | 0.00 | 95 | 1019.3 |
| 20260901083303 | 54 | 189 | 3.0 | 6.0 | 0.00 | 0.00 | 0.00 | 95 | 1019.4 |
| 20260901083203 | 54 | 186 | 1.0 | 4.0 | 0.00 | 0.00 | 0.00 | 95 | 1019.2 |
| 20260901083103 | 54 | 197 | 2.0 | 6.0 | 0.00 | 0.00 | 0.00 | 95 | 1019.3 |
| 20260901083018 | 54 | 196 | 1.0 | 6.0 | 0.00 | 0.00 | 0.00 | 95 | 1019.1 |
| 20260901083003 | 54 | 198 | 1.0 | 6.0 | 0.00 | 0.00 | 0.00 | 95 | 1019.1 |
| 20260901082903 | 54 | 198 | 2.0 | 6.0 | 0.00 | 0.00 | 0.00 | 95 | 1019.1 |
| 20260901082718 | 54 | 229 | 1.0 | 6.0 | 0.00 | 0.00 | 0.00 | 95 | 1019.2 |
| 20260901082703 | 54 | 231 | 2.0 | 6.0 | 0.00 | 0.00 | 0.00 | 95 | 1019.1 |
| 20260901082603 | 54 | 235 | 3.0 | 6.0 | 0.00 | 0.00 | 0.00 | 95 | 1019.2 |
| 20260901082517 | 54 | 240 | 1.0 | 6.0 | 0.00 | 0.00 | 0.00 | 95 | 1019.0 |
| 20260901082403 | 54 | 240 | 2.0 | 6.0 | 0.00 | 0.00 | 0.00 | 95 | 1019.4 |
| 20260901082203 | 54 | 232 | 2.0 | 4.0 | 0.00 | 0.00 | 0.00 | 95 | 1019.0 |
| 20260901082103 | 54 | 231 | 2.0 | 4.0 | 0.00 | 0.00 | 0.00 | 95 | 1018.9 |
| 20260901082003 | 54 | 231 | 1.0 | 4.0 | 0.00 | 0.00 | 0.00 | 95 | 1019.2 |
| 20260901081903 | 54 | 234 | 2.0 | 4.0 | 0.00 | 0.00 | 0.00 | 95 | 1018.9 |
| 20260901081818 | 54 | 235 | 2.0 | 4.0 | 0.00 | 0.00 | 0.00 | 95 | 1018.9 |
| 20260901081803 | 54 | 231 | 2.0 | 4.0 | 0.00 | 0.00 | 0.00 | 95 | 1018.9 |
| 20260901081718 | 54 | 226 | 2.0 | 4.0 | 0.00 | 0.00 | 0.00 | 95 | 1018.9 |
| 20260901081703 | 54 | 229 | 2.0 | 4.0 | 0.00 | 0.00 | 0.00 | 95 | 1018.9 |
| 20260901081517 | 55 | 222 | 2.0 | 2.0 | 0.00 | 0.00 | 0.00 | 95 | 1018.8 |
| 20260901081418 | 55 | 209 | 1.0 | 2.0 | 0.00 | 0.00 | 0.00 | 95 | 1018.9 |
| 20260901081403 | 55 | 207 | 1.0 | 2.0 | 0.00 | 0.00 | 0.00 | 95 | 1018.9 |
| 20260901081317 | 55 | 201 | 1.0 | 2.0 | 0.00 | 0.00 | 0.00 | 95 | 1018.9 |
| 20260901081003 | 55 | 214 | 0.0 | 4.0 | 0.00 | 0.00 | 0.00 | 94 | 1018.9 |
| 20260901080903 | 55 | 217 | 1.0 | 4.0 | 0.00 | 0.00 | 0.00 | 94 | 1019.2 |
| 20260901080803 | 55 | 224 | 1.0 | 4.0 | 0.00 | 0.00 | 0.00 | 94 | 1019.1 |
| 20260901080703 | 55 | 224 | 1.0 | 2.0 | 0.00 | 0.00 | 0.00 | 94 | 1019.1 |
| 20260901080603 | 55 | 221 | 1.0 | 2.0 | 0.00 | 0.00 | 0.00 | 94 | 1018.7 |
| 20260901080503 | 55 | 226 | 0.0 | 2.0 | 0.00 | 0.00 | 0.00 | 94 | 1019.0 |
| 20260901080403 | 55 | 223 | 0.0 | 2.0 | 0.00 | 0.00 | 0.00 | 94 | 1019.0 |
| 20260901080303 | 55 | 221 | 1.0 | 2.0 | 0.00 | 0.00 | 0.00 | 94 | 1018.8 |
| 20260901080003 | 55 | 226 | 1.0 | 2.0 | 0.00 | 0.00 | 0.00 | 94 | 1019.0 |
| 20260901075903 | 55 | 230 | 0.0 | 2.0 | 0.00 | 0.00 | 0.00 | 94 | 1019.0 |
| 20260901075803 | 55 | 225 | 1.0 | 2.0 | 0.00 | 0.00 | 0.00 | 94 | 1018.8 |
| 20260901075703 | 55 | 225 | 0.0 | 2.0 | 0.00 | 0.00 | 0.00 | 94 | 1019.1 |
| 20260901075603 | 55 | 225 | 0.0 | 2.0 | 0.00 | 0.00 | 0.00 | 94 | 1019.0 |
| 20260901075503 | 55 | 229 | 0.0 | 2.0 | 0.00 | 0.00 | 0.00 | 94 | 1019.2 |
| 20260901075418 | 55 | 236 | 0.0 | 2.0 | 0.00 | 0.00 | 0.00 | 94 | 1019.0 |
| 20260901075403 | 55 | 235 | 0.0 | 2.0 | 0.00 | 0.00 | 0.00 | 94 | 1019.0 |
| 20260901075307 | 55 | 223 | 0.0 | 2.0 | 0.00 | 0.00 | 0.00 | 94 | 1018.8 |
| 20260901075103 | 55 | 229 | 0.0 | 4.0 | 0.00 | 0.00 | 0.00 | 94 | 1018.9 |
| 20260901075003 | 55 | 235 | 1.0 | 4.0 | 0.00 | 0.00 | 0.00 | 94 | 1019.0 |
| 20260901074903 | 55 | 233 | 0.0 | 4.0 | 0.00 | 0.00 | 0.00 | 94 | 1018.8 |
| 20260901074803 | 55 | 238 | 1.0 | 4.0 | 0.00 | 0.00 | 0.00 | 94 | 1019.1 |
| 20260901074704 | 55 | 243 | 1.0 | 4.0 | 0.00 | 0.00 | 0.00 | 94 | 1018.8 |
| 20260901074603 | 55 | 239 | 2.0 | 4.0 | 0.00 | 0.00 | 0.00 | 94 | 1018.8 |
| 20260901074503 | 56 | 227 | 1.0 | 2.0 | 0.00 | 0.00 | 0.00 | 94 | 1018.9 |
| 20260901074403 | 55 | 219 | 1.0 | 2.0 | 0.00 | 0.00 | 0.00 | 94 | 1018.7 |
| 20260901074303 | 56 | 241 | 1.0 | 4.0 | 0.00 | 0.00 | 0.00 | 94 | 1018.6 |
| 20260901074203 | 56 | 225 | 1.0 | 4.0 | 0.00 | 0.00 | 0.00 | 94 | 1018.5 |
| 20260901074103 | 55 | 225 | 0.0 | 4.0 | 0.00 | 0.00 | 0.00 | 94 | 1018.7 |
| 20260901074003 | 56 | 229 | 0.0 | 4.0 | 0.00 | 0.00 | 0.00 | 94 | 1018.9 |
| 20260901073903 | 56 | 223 | 1.0 | 6.0 | 0.00 | 0.00 | 0.00 | 94 | 1018.9 |
| 20260901073803 | 56 | 204 | 1.0 | 6.0 | 0.00 | 0.00 | 0.00 | 94 | 1018.8 |
| 20260901073703 | 56 | 208 | 0.0 | 6.0 | 0.00 | 0.00 | 0.00 | 94 | 1018.8 |
| 20260901073603 | 56 | 210 | 0.0 | 6.0 | 0.00 | 0.00 | 0.00 | 94 | 1018.9 |
| 20260901073403 | 56 | 212 | 1.0 | 6.0 | 0.00 | 0.00 | 0.00 | 94 | 1019.0 |
| 20260901073303 | 56 | 214 | 0.0 | 6.0 | 0.00 | 0.00 | 0.00 | 94 | 1018.9 |
| 20260901073203 | 56 | 216 | 2.0 | 6.0 | 0.00 | 0.00 | 0.00 | 94 | 1018.8 |
| 20260901073103 | 56 | 219 | 2.0 | 6.0 | 0.00 | 0.00 | 0.00 | 94 | 1018.7 |
| 20260901073003 | 56 | 217 | 3.0 | 6.0 | 0.00 | 0.00 | 0.00 | 94 | 1018.5 |
| 20260901072903 | 56 | 236 | 1.0 | 4.0 | 0.00 | 0.00 | 0.00 | 94 | 1018.8 |
| 20260901072803 | 56 | 236 | 0.0 | 4.0 | 0.00 | 0.00 | 0.00 | 94 | 1018.8 |
| 20260901072703 | 56 | 230 | 1.0 | 4.0 | 0.00 | 0.00 | 0.00 | 94 | 1018.7 |
| 20260901072603 | 56 | 204 | 1.0 | 4.0 | 0.00 | 0.00 | 0.00 | 94 | 1018.7 |
| 20260901072517 | 56 | 186 | 0.0 | 4.0 | 0.00 | 0.00 | 0.00 | 94 | 1018.9 |
| 20260901072503 | 56 | 185 | 0.0 | 4.0 | 0.00 | 0.00 | 0.00 | 94 | 1018.9 |
| 20260901072403 | 56 | 178 | 1.0 | 4.0 | 0.00 | 0.00 | 0.00 | 94 | 1019.1 |
| 20260901072318 | 56 | 168 | 1.0 | 4.0 | 0.00 | 0.00 | 0.00 | 94 | 1019.0 |
| 20260901072203 | 56 | 172 | 3.0 | 4.0 | 0.00 | 0.00 | 0.00 | 94 | 1019.0 |
| 20260901072018 | 56 | 183 | 2.0 | 6.0 | 0.00 | 0.00 | 0.00 | 94 | 1019.0 |
| 20260901072003 | 56 | 190 | 2.0 | 6.0 | 0.00 | 0.00 | 0.00 | 94 | 1019.0 |
| 20260901071904 | 56 | 205 | 1.0 | 6.0 | 0.00 | 0.00 | 0.00 | 94 | 1019.0 |
| 20260901071703 | 56 | 204 | 2.0 | 6.0 | 0.00 | 0.00 | 0.00 | 94 | 1019.1 |
| 20260901071603 | 56 | 208 | 2.0 | 6.0 | 0.00 | 0.00 | 0.00 | 94 | 1018.8 |
| 20260901071503 | 56 | 210 | 2.0 | 4.0 | 0.00 | 0.00 | 0.00 | 94 | 1019.0 |
| 20260901071417 | 56 | 212 | 2.0 | 4.0 | 0.00 | 0.00 | 0.00 | 94 | 1019.0 |
| 20260901071403 | 56 | 210 | 2.0 | 4.0 | 0.00 | 0.00 | 0.00 | 94 | 1019.0 |
| 20260901071303 | 56 | 211 | 1.0 | 4.0 | 0.00 | 0.00 | 0.00 | 94 | 1019.0 |
| 20260901071217 | 56 | 224 | 2.0 | 4.0 | 0.00 | 0.00 | 0.00 | 94 | 1018.9 |
| 20260901071103 | 56 | 244 | 2.0 | 4.0 | 0.00 | 0.00 | 0.00 | 94 | 1019.0 |
| 20260901070903 | 56 | 211 | 1.0 | 4.0 | 0.00 | 0.00 | 0.00 | 94 | 1019.0 |
| 20260901070817 | 56 | 211 | 1.0 | 4.0 | 0.00 | 0.00 | 0.00 | 94 | 1019.0 |
| 20260901070803 | 56 | 212 | 1.0 | 4.0 | 0.00 | 0.00 | 0.00 | 94 | 1019.0 |
| 20260901070703 | 56 | 208 | 1.0 | 4.0 | 0.00 | 0.00 | 0.00 | 94 | 1019.1 |
| 20260901070503 | 56 | 222 | 1.0 | 4.0 | 0.00 | 0.00 | 0.00 | 94 | 1019.0 |
| 20260901070403 | 56 | 241 | 2.0 | 4.0 | 0.00 | 0.00 | 0.00 | 94 | 1019.0 |
| 20260901070303 | 56 | 243 | 1.0 | 4.0 | 0.00 | 0.00 | 0.00 | 94 | 1018.9 |
| 20260901070203 | 56 | 239 | 2.0 | 4.0 | 0.00 | 0.00 | 0.00 | 94 | 1019.0 |
| 20260901070103 | 56 | 234 | 2.0 | 4.0 | 0.00 | 0.00 | 0.00 | 94 | 1019.1 |
| 20260901070003 | 56 | 234 | 1.0 | 4.0 | 0.00 | 0.00 | 0.00 | 94 | 1019.0 |
| 20260901065903 | 56 | 218 | 2.0 | 4.0 | 0.00 | 0.00 | 0.00 | 94 | 1018.9 |
| 20260901065803 | 56 | 217 | 1.0 | 4.0 | 0.00 | 0.00 | 0.00 | 94 | 1019.1 |
| 20260901065703 | 56 | 199 | 1.0 | 4.0 | 0.00 | 0.00 | 0.00 | 94 | 1019.1 |
| 20260901065603 | 56 | 185 | 1.0 | 4.0 | 0.00 | 0.00 | 0.00 | 94 | 1019.3 |
| 20260901065517 | 56 | 183 | 2.0 | 4.0 | 0.00 | 0.00 | 0.00 | 94 | 1019.1 |
| 20260901065503 | 56 | 178 | 1.0 | 4.0 | 0.00 | 0.00 | 0.00 | 94 | 1018.9 |
| 20260901065417 | 56 | 180 | 2.0 | 4.0 | 0.00 | 0.00 | 0.00 | 94 | 1019.2 |
| 20260901065403 | 56 | 178 | 2.0 | 4.0 | 0.00 | 0.00 | 0.00 | 94 | 1019.2 |
| 20260901065103 | 56 | 196 | 2.0 | 4.0 | 0.00 | 0.00 | 0.00 | 94 | 1019.1 |
| 20260901065018 | 56 | 196 | 1.0 | 4.0 | 0.00 | 0.00 | 0.00 | 94 | 1019.0 |
| 20260901065003 | 56 | 204 | 1.0 | 4.0 | 0.00 | 0.00 | 0.00 | 94 | 1019.0 |
| 20260901064903 | 56 | 224 | 2.0 | 4.0 | 0.00 | 0.00 | 0.00 | 94 | 1019.1 |
| 20260901064718 | 56 | 234 | 1.0 | 4.0 | 0.00 | 0.00 | 0.00 | 94 | 1019.0 |
| 20260901064703 | 56 | 230 | 1.0 | 4.0 | 0.00 | 0.00 | 0.00 | 94 | 1019.2 |
| 20260901064603 | 56 | 227 | 2.0 | 4.0 | 0.00 | 0.00 | 0.00 | 94 | 1019.3 |
| 20260901064403 | 56 | 221 | 2.0 | 4.0 | 0.00 | 0.00 | 0.00 | 94 | 1019.3 |
| 20260901064303 | 56 | 223 | 2.0 | 4.0 | 0.00 | 0.00 | 0.00 | 93 | 1019.0 |
| 20260901064204 | 56 | 238 | 1.0 | 4.0 | 0.00 | 0.00 | 0.00 | 93 | 1019.2 |
| 20260901064103 | 56 | 241 | 2.0 | 4.0 | 0.00 | 0.00 | 0.00 | 93 | 1019.4 |
| 20260901064003 | 56 | 241 | 2.0 | 4.0 | 0.00 | 0.00 | 0.00 | 93 | 1019.1 |
| 20260901063918 | 56 | 248 | 1.0 | 4.0 | 0.00 | 0.00 | 0.00 | 93 | 1019.4 |
| 20260901063903 | 56 | 250 | 2.0 | 4.0 | 0.00 | 0.00 | 0.00 | 93 | 1019.3 |
| 20260901063803 | 56 | 244 | 2.0 | 4.0 | 0.00 | 0.00 | 0.00 | 93 | 1018.9 |
| 20260901063603 | 56 | 223 | 2.0 | 4.0 | 0.00 | 0.00 | 0.00 | 93 | 1018.9 |
| 20260901063503 | 56 | 226 | 2.0 | 4.0 | 0.00 | 0.00 | 0.00 | 93 | 1019.1 |
| 20260901063318 | 56 | 226 | 2.0 | 4.0 | 0.00 | 0.00 | 0.00 | 93 | 1019.0 |
| 20260901063303 | 56 | 224 | 2.0 | 4.0 | 0.00 | 0.00 | 0.00 | 93 | 1019.0 |
| 20260901063203 | 56 | 214 | 2.0 | 4.0 | 0.00 | 0.00 | 0.00 | 93 | 1018.9 |
| 20260901063003 | 56 | 220 | 2.0 | 4.0 | 0.00 | 0.00 | 0.00 | 93 | 1018.9 |
| 20260901062903 | 56 | 206 | 2.0 | 4.0 | 0.00 | 0.00 | 0.00 | 93 | 1018.9 |
| 20260901062803 | 56 | 214 | 2.0 | 4.0 | 0.00 | 0.00 | 0.00 | 93 | 1018.9 |
| 20260901062703 | 56 | 231 | 2.0 | 4.0 | 0.00 | 0.00 | 0.00 | 93 | 1018.9 |
| 20260901062603 | 56 | 221 | 2.0 | 4.0 | 0.00 | 0.00 | 0.00 | 93 | 1018.8 |
| 20260901062503 | 56 | 209 | 1.0 | 4.0 | 0.00 | 0.00 | 0.00 | 93 | 1019.1 |
| 20260901062403 | 56 | 199 | 2.0 | 4.0 | 0.00 | 0.00 | 0.00 | 93 | 1018.9 |
| 20260901062309 | 56 | 183 | 2.0 | 4.0 | 0.00 | 0.00 | 0.00 | 93 | 1018.9 |
| 20260901062203 | 56 | 174 | 2.0 | 4.0 | 0.00 | 0.00 | 0.00 | 93 | 1019.0 |
| 20260901062103 | 56 | 173 | 2.0 | 4.0 | 0.00 | 0.00 | 0.00 | 93 | 1018.9 |
| 20260901062003 | 57 | 185 | 1.0 | 4.0 | 0.00 | 0.00 | 0.00 | 93 | 1018.7 |
| 20260901061903 | 57 | 195 | 2.0 | 4.0 | 0.00 | 0.00 | 0.00 | 93 | 1018.9 |
| 20260901061803 | 56 | 210 | 2.0 | 4.0 | 0.00 | 0.00 | 0.00 | 93 | 1018.7 |
| 20260901061703 | 57 | 215 | 2.0 | 4.0 | 0.00 | 0.00 | 0.00 | 93 | 1019.0 |
| 20260901061603 | 57 | 207 | 2.0 | 4.0 | 0.00 | 0.00 | 0.00 | 93 | 1018.9 |
| 20260901061503 | 57 | 212 | 1.0 | 4.0 | 0.00 | 0.00 | 0.00 | 93 | 1018.9 |
| 20260901061403 | 57 | 203 | 1.0 | 6.0 | 0.00 | 0.00 | 0.00 | 93 | 1019.2 |
| 20260901061303 | 57 | 196 | 1.0 | 6.0 | 0.00 | 0.00 | 0.00 | 93 | 1018.9 |
| 20260901061203 | 57 | 199 | 2.0 | 6.0 | 0.00 | 0.00 | 0.00 | 93 | 1018.9 |
| 20260901061117 | 57 | 216 | 2.0 | 6.0 | 0.00 | 0.00 | 0.00 | 93 | 1018.8 |
| 20260901061003 | 57 | 188 | 2.0 | 6.0 | 0.00 | 0.00 | 0.00 | 93 | 1019.1 |
| 20260901060803 | 57 | 230 | 0.0 | 2.0 | 0.00 | 0.00 | 0.00 | 93 | 1019.0 |
| 20260901060717 | 57 | 225 | 1.0 | 2.0 | 0.00 | 0.00 | 0.00 | 93 | 1018.9 |
| 20260901060703 | 57 | 224 | 1.0 | 2.0 | 0.00 | 0.00 | 0.00 | 93 | 1019.0 |
| 20260901060603 | 56 | 222 | 0.0 | 2.0 | 0.00 | 0.00 | 0.00 | 93 | 1019.0 |
| 20260901060403 | 57 | 221 | 0.0 | 6.0 | 0.00 | 0.00 | 0.00 | 93 | 1019.0 |
| 20260901060303 | 57 | 210 | 1.0 | 6.0 | 0.00 | 0.00 | 0.00 | 93 | 1019.1 |
| 20260901060203 | 57 | 209 | 1.0 | 6.0 | 0.00 | 0.00 | 0.00 | 93 | 1019.2 |
| 20260901060103 | 57 | 209 | 1.0 | 6.0 | 0.00 | 0.00 | 0.00 | 93 | 1019.0 |
| 20260901060003 | 57 | 208 | 2.0 | 6.0 | 0.00 | 0.00 | 0.00 | 93 | 1019.0 |
| 20260901055903 | 57 | 192 | 1.0 | 4.0 | 0.00 | 0.00 | 0.00 | 93 | 1019.1 |
| 20260901055703 | 57 | 203 | 2.0 | 4.0 | 0.00 | 0.00 | 0.00 | 93 | 1019.1 |
| 20260901055603 | 57 | 208 | 2.0 | 4.0 | 0.00 | 0.00 | 0.00 | 93 | 1019.3 |
| 20260901055503 | 57 | 213 | 2.0 | 4.0 | 0.00 | 0.00 | 0.00 | 93 | 1019.1 |
| 20260901055403 | 57 | 225 | 2.0 | 4.0 | 0.00 | 0.00 | 0.00 | 93 | 1019.2 |
| 20260901055306 | 57 | 227 | 2.0 | 4.0 | 0.00 | 0.00 | 0.00 | 93 | 1019.4 |
| 20260901055203 | 57 | 235 | 2.0 | 4.0 | 0.00 | 0.00 | 0.00 | 93 | 1019.3 |
| 20260901055103 | 57 | 234 | 1.0 | 4.0 | 0.00 | 0.00 | 0.00 | 93 | 1019.1 |
| 20260901055003 | 57 | 233 | 1.0 | 4.0 | 0.00 | 0.00 | 0.00 | 93 | 1019.3 |
| 20260901054903 | 57 | 232 | 2.0 | 4.0 | 0.00 | 0.00 | 0.00 | 93 | 1019.3 |
| 20260901054803 | 57 | 220 | 2.0 | 4.0 | 0.00 | 0.00 | 0.00 | 93 | 1019.2 |
| 20260901054703 | 57 | 219 | 2.0 | 4.0 | 0.00 | 0.00 | 0.00 | 93 | 1019.1 |
| 20260901054603 | 57 | 219 | 2.0 | 4.0 | 0.00 | 0.00 | 0.00 | 93 | 1019.2 |
| 20260901054503 | 57 | 224 | 2.0 | 4.0 | 0.00 | 0.00 | 0.00 | 93 | 1019.2 |
| 20260901054403 | 57 | 224 | 2.0 | 4.0 | 0.00 | 0.00 | 0.00 | 93 | 1019.2 |
| 20260901054303 | 57 | 233 | 2.0 | 4.0 | 0.00 | 0.00 | 0.00 | 93 | 1019.2 |
| 20260901054203 | 57 | 226 | 2.0 | 4.0 | 0.00 | 0.00 | 0.00 | 93 | 1019.1 |
| 20260901054117 | 57 | 232 | 2.0 | 4.0 | 0.00 | 0.00 | 0.00 | 93 | 1019.1 |
| 20260901054103 | 57 | 236 | 2.0 | 4.0 | 0.00 | 0.00 | 0.00 | 93 | 1019.1 |
| 20260901054017 | 57 | 235 | 2.0 | 4.0 | 0.00 | 0.00 | 0.00 | 93 | 1019.0 |
| 20260901054003 | 57 | 233 | 2.0 | 4.0 | 0.00 | 0.00 | 0.00 | 93 | 1019.0 |
| 20260901053918 | 57 | 217 | 1.0 | 4.0 | 0.00 | 0.00 | 0.00 | 93 | 1019.0 |
| 20260901053603 | 57 | 176 | 2.0 | 4.0 | 0.00 | 0.00 | 0.00 | 93 | 1019.0 |
| 20260901053503 | 57 | 183 | 1.0 | 4.0 | 0.00 | 0.00 | 0.00 | 93 | 1019.0 |
| 20260901053403 | 57 | 210 | 2.0 | 4.0 | 0.00 | 0.00 | 0.00 | 93 | 1018.9 |
| 20260901053308 | 57 | 221 | 2.0 | 4.0 | 0.00 | 0.00 | 0.00 | 93 | 1019.1 |
| 20260901053203 | 57 | 232 | 1.0 | 4.0 | 0.00 | 0.00 | 0.00 | 93 | 1018.9 |
| 20260901053103 | 57 | 224 | 2.0 | 4.0 | 0.00 | 0.00 | 0.00 | 93 | 1019.1 |
| 20260901053003 | 57 | 214 | 2.0 | 4.0 | 0.00 | 0.00 | 0.00 | 93 | 1019.1 |
| 20260901052918 | 57 | 203 | 2.0 | 4.0 | 0.00 | 0.00 | 0.00 | 93 | 1019.1 |
| 20260901052903 | 57 | 199 | 2.0 | 4.0 | 0.00 | 0.00 | 0.00 | 93 | 1019.1 |
| 20260901052803 | 57 | 206 | 2.0 | 4.0 | 0.00 | 0.00 | 0.00 | 93 | 1019.2 |
| 20260901052618 | 57 | 204 | 2.0 | 4.0 | 0.00 | 0.00 | 0.00 | 93 | 1019.1 |
| 20260901052603 | 57 | 210 | 2.0 | 4.0 | 0.00 | 0.00 | 0.00 | 93 | 1019.1 |
| 20260901052503 | 57 | 213 | 2.0 | 4.0 | 0.00 | 0.00 | 0.00 | 93 | 1019.0 |
| 20260901052306 | 57 | 221 | 2.0 | 6.0 | 0.00 | 0.00 | 0.00 | 93 | 1018.9 |
| 20260901052203 | 57 | 208 | 2.0 | 6.0 | 0.00 | 0.00 | 0.00 | 93 | 1019.3 |
| 20260901052103 | 57 | 190 | 1.0 | 6.0 | 0.00 | 0.00 | 0.00 | 93 | 1019.2 |
| 20260901052004 | 57 | 213 | 1.0 | 6.0 | 0.00 | 0.00 | 0.00 | 93 | 1019.1 |
| 20260901051903 | 57 | 190 | 1.0 | 4.0 | 0.00 | 0.00 | 0.00 | 93 | 1019.4 |
| 20260901051818 | 57 | 214 | 0.0 | 4.0 | 0.00 | 0.00 | 0.00 | 93 | 1019.1 |
| 20260901051803 | 57 | 219 | 0.0 | 4.0 | 0.00 | 0.00 | 0.00 | 93 | 1019.1 |
| 20260901051703 | 57 | 220 | 2.0 | 6.0 | 0.00 | 0.00 | 0.00 | 93 | 1019.0 |
| 20260901051503 | 57 | 227 | 0.0 | 6.0 | 0.00 | 0.00 | 0.00 | 93 | 1019.2 |
| 20260901051403 | 57 | 233 | 0.0 | 6.0 | 0.00 | 0.00 | 0.00 | 93 | 1019.4 |
| 20260901051303 | 57 | 222 | 1.0 | 6.0 | 0.00 | 0.00 | 0.00 | 93 | 1019.2 |
| 20260901051203 | 57 | 229 | 3.0 | 6.0 | 0.00 | 0.00 | 0.00 | 93 | 1019.3 |
| 20260901051103 | 57 | 230 | 2.0 | 4.0 | 0.00 | 0.00 | 0.00 | 93 | 1019.1 |
| 20260901051003 | 57 | 225 | 2.0 | 4.0 | 0.00 | 0.00 | 0.00 | 93 | 1019.2 |
| 20260901050903 | 57 | 211 | 2.0 | 4.0 | 0.00 | 0.00 | 0.00 | 93 | 1019.3 |
| 20260901050803 | 57 | 217 | 3.0 | 4.0 | 0.00 | 0.00 | 0.00 | 93 | 1019.0 |
| 20260901050703 | 57 | 204 | 1.0 | 2.0 | 0.00 | 0.00 | 0.00 | 93 | 1019.4 |
| 20260901050618 | 57 | 206 | 1.0 | 4.0 | 0.00 | 0.00 | 0.00 | 93 | 1019.4 |
| 20260901050603 | 57 | 209 | 1.0 | 4.0 | 0.00 | 0.00 | 0.00 | 93 | 1019.4 |
| 20260901050503 | 57 | 214 | 1.0 | 4.0 | 0.00 | 0.00 | 0.00 | 93 | 1019.1 |
| 20260901050303 | 57 | 214 | 1.0 | 4.0 | 0.00 | 0.00 | 0.00 | 93 | 1019.3 |
| 20260901050218 | 57 | 220 | 1.0 | 4.0 | 0.00 | 0.00 | 0.00 | 93 | 1019.3 |
| 20260901050203 | 57 | 221 | 1.0 | 4.0 | 0.00 | 0.00 | 0.00 | 93 | 1019.3 |
| 20260901050103 | 57 | 227 | 2.0 | 4.0 | 0.00 | 0.00 | 0.00 | 93 | 1019.3 |
| 20260901045903 | 57 | 232 | 1.0 | 4.0 | 0.00 | 0.00 | 0.00 | 93 | 1019.1 |
| 20260901045803 | 57 | 231 | 0.0 | 4.0 | 0.00 | 0.00 | 0.00 | 93 | 1019.2 |
| 20260901045703 | 57 | 230 | 0.0 | 4.0 | 0.00 | 0.00 | 0.00 | 93 | 1019.2 |
| 20260901045603 | 58 | 221 | 2.0 | 4.0 | 0.00 | 0.00 | 0.00 | 93 | 1019.4 |
| 20260901045503 | 57 | 224 | 2.0 | 4.0 | 0.00 | 0.00 | 0.00 | 93 | 1019.5 |
| 20260901045403 | 57 | 230 | 2.0 | 4.0 | 0.00 | 0.00 | 0.00 | 93 | 1019.4 |
| 20260901045317 | 58 | 228 | 3.0 | 4.0 | 0.00 | 0.00 | 0.00 | 93 | 1019.4 |
| 20260901045306 | 58 | 227 | 3.0 | 4.0 | 0.00 | 0.00 | 0.00 | 93 | 1019.4 |
| 20260901045203 | 58 | 221 | 1.0 | 4.0 | 0.00 | 0.00 | 0.00 | 93 | 1019.4 |
| 20260901045003 | 58 | 239 | 2.0 | 4.0 | 0.00 | 0.00 | 0.00 | 93 | 1019.3 |
| 20260901044917 | 58 | 236 | 2.0 | 4.0 | 0.00 | 0.00 | 0.00 | 92 | 1019.2 |
| 20260901044903 | 58 | 239 | 2.0 | 4.0 | 0.00 | 0.00 | 0.00 | 92 | 1019.2 |
| 20260901044803 | 58 | 239 | 0.0 | 4.0 | 0.00 | 0.00 | 0.00 | 92 | 1019.2 |
| 20260901044603 | 58 | 236 | 2.0 | 4.0 | 0.00 | 0.00 | 0.00 | 92 | 1019.4 |
| 20260901044508 | 58 | 230 | 2.0 | 4.0 | 0.00 | 0.00 | 0.00 | 92 | 1019.4 |
| 20260901044403 | 58 | 228 | 2.0 | 4.0 | 0.00 | 0.00 | 0.00 | 92 | 1019.4 |
| 20260901044303 | 58 | 231 | 2.0 | 4.0 | 0.00 | 0.00 | 0.00 | 92 | 1019.2 |
| 20260901044203 | 58 | 235 | 2.0 | 4.0 | 0.00 | 0.00 | 0.00 | 92 | 1019.3 |
| 20260901044103 | 58 | 228 | 2.0 | 4.0 | 0.00 | 0.00 | 0.00 | 92 | 1019.4 |